Time,TemperatureF,DewpointF,PressureIn,WindDirection,WindDirectionDegrees,WindSpeedMPH,WindSpeedGustMPH,Humidity,HourlyPrecipIn,Conditions,Clouds,dailyrainin,SolarRadiationWatts/m^2,SoftwareType,DateUTC
2013-02-03 00:01:00,6.6,3.6,29.92,North,32767,0.0,0.0,87,0.00,,,0.00,0,Wunderground v.1.15,2013-02-03 05:01:00,
2013-02-03 00:03:00,6.5,3.5,29.92,North,32767,0.0,0.0,87,0.00,,,0.00,0,Wunderground v.1.15,2013-02-03 05:03:00,
2013-02-03 00:04:00,6.5,3.5,29.92,North,32767,0.0,0.0,87,0.00,,,0.00,0,Wunderground v.1.15,2013-02-03 05:04:00,
2013-02-03 00:09:00,6.2,3.2,29.92,North,32767,0.0,0.0,87,0.00,,,0.00,0,Wunderground v.1.15,2013-02-03 05:09:00,
2013-02-03 00:14:00,14.9,10.4,29.83,N/A,-737280,0.0,-999.0,82,0.00,,,0.00,133,Wunderground v.1.15,2013-02-03 05:14:00,
2013-02-03 00:15:00,6.0,3.2,29.92,North,32767,0.0,0.0,88,0.00,,,0.00,0,Wunderground v.1.15,2013-02-03 05:15:00,
2013-02-03 00:19:00,14.9,10.4,29.83,N/A,-737280,0.0,-999.0,82,0.00,,,0.00,133,Wunderground v.1.15,2013-02-03 05:19:00,
2013-02-03 00:21:00,5.8,3.0,29.92,North,32767,0.0,0.0,88,0.00,,,0.00,0,Wunderground v.1.15,2013-02-03 05:21:00,
2013-02-03 00:24:00,14.9,10.4,29.83,N/A,-737280,0.0,-999.0,82,0.00,,,0.00,133,Wunderground v.1.15,2013-02-03 05:24:00,
2013-02-03 00:26:00,5.5,2.7,29.92,North,32767,0.0,0.0,88,0.00,,,0.00,0,Wunderground v.1.15,2013-02-03 05:26:00,
2013-02-03 00:29:00,14.9,10.4,29.83,N/A,-737280,0.0,-999.0,82,0.00,,,0.00,133,Wunderground v.1.15,2013-02-03 05:29:00,
2013-02-03 00:32:00,5.4,2.6,29.92,North,32767,0.0,0.0,88,0.00,,,0.00,0,Wunderground v.1.15,2013-02-03 05:32:00,
2013-02-03 00:34:00,14.9,10.4,29.83,N/A,-737280,0.0,-999.0,82,0.00,,,0.00,133,Wunderground v.1.15,2013-02-03 05:34:00,
2013-02-03 00:37:00,5.3,2.8,29.92,North,32767,0.0,0.0,89,0.00,,,0.00,0,Wunderground v.1.15,2013-02-03 05:37:00,
2013-02-03 00:39:00,14.9,10.4,29.83,N/A,-737280,0.0,-999.0,82,0.00,,,0.00,133,Wunderground v.1.15,2013-02-03 05:39:00,
2013-02-03 00:43:00,5.1,2.6,29.91,North,32767,0.0,0.0,89,0.00,,,0.00,0,Wunderground v.1.15,2013-02-03 05:43:00,
2013-02-03 00:44:00,14.9,10.4,29.83,N/A,-737280,0.0,-999.0,82,0.00,,,0.00,133,Wunderground v.1.15,2013-02-03 05:44:00,
2013-02-03 00:49:00,5.0,2.5,29.91,North,32767,0.0,0.0,89,0.00,,,0.00,0,Wunderground v.1.15,2013-02-03 05:49:00,
2013-02-03 00:54:00,16.0,11.2,29.83,N/A,-737280,0.0,-999.0,81,0.00,,,0.00,190,Wunderground v.1.15,2013-02-03 05:54:00,
2013-02-03 00:55:00,4.9,2.4,29.92,North,32767,0.0,0.0,89,0.00,,,0.00,0,Wunderground v.1.15,2013-02-03 05:55:00,
2013-02-03 00:59:00,16.0,11.2,29.83,N/A,-737280,0.0,-999.0,81,0.00,,,0.00,190,Wunderground v.1.15,2013-02-03 05:59:00,
2013-02-03 01:00:00,4.9,2.4,29.91,North,32767,0.0,0.0,89,0.00,,,0.00,0,Wunderground v.1.15,2013-02-03 06:00:00,
2013-02-03 01:04:00,16.0,11.2,29.83,N/A,-737280,0.0,-999.0,81,0.00,,,0.00,190,Wunderground v.1.15,2013-02-03 06:04:00,
2013-02-03 01:05:00,4.8,2.3,29.91,North,32767,0.0,0.0,89,0.00,,,0.00,0,Wunderground v.1.15,2013-02-03 06:05:00,
2013-02-03 01:09:00,16.0,11.2,29.83,N/A,-737280,0.0,-999.0,81,0.00,,,0.00,190,Wunderground v.1.15,2013-02-03 06:09:00,
2013-02-03 01:11:00,4.8,2.3,29.91,North,32767,0.0,0.0,89,0.00,,,0.00,0,Wunderground v.1.15,2013-02-03 06:11:00,
2013-02-03 01:14:00,16.0,11.2,29.83,N/A,-737280,0.0,-999.0,81,0.00,,,0.00,190,Wunderground v.1.15,2013-02-03 06:14:00,
2013-02-03 01:17:00,4.9,2.6,29.91,North,32767,0.0,0.0,90,0.00,,,0.00,0,Wunderground v.1.15,2013-02-03 06:17:00,
2013-02-03 01:19:00,17.1,12.6,29.82,N/A,-737280,0.0,-999.0,82,0.00,,,0.00,207,Wunderground v.1.15,2013-02-03 06:19:00,
2013-02-03 01:22:00,4.9,2.6,29.91,North,32767,0.0,0.0,90,0.00,,,0.00,0,Wunderground v.1.15,2013-02-03 06:22:00,
2013-02-03 01:24:00,17.1,12.6,29.82,N/A,-737280,0.0,-999.0,82,0.00,,,0.00,207,Wunderground v.1.15,2013-02-03 06:24:00,
2013-02-03 01:28:00,5.0,2.7,29.91,North,32767,0.0,0.0,90,0.00,,,0.00,0,Wunderground v.1.15,2013-02-03 06:28:00,
2013-02-03 01:29:00,17.1,12.6,29.82,N/A,-737280,0.0,-999.0,82,0.00,,,0.00,207,Wunderground v.1.15,2013-02-03 06:29:00,
2013-02-03 01:34:00,5.1,2.8,29.91,North,32767,0.0,0.0,90,0.00,,,0.00,0,Wunderground v.1.15,2013-02-03 06:34:00,
2013-02-03 01:39:00,17.1,12.6,29.82,N/A,-737280,0.0,-999.0,82,0.00,,,0.00,207,Wunderground v.1.15,2013-02-03 06:39:00,
2013-02-03 01:40:00,5.2,2.9,29.91,North,32767,0.0,0.0,90,0.00,,,0.00,0,Wunderground v.1.15,2013-02-03 06:40:00,
2013-02-03 01:44:00,17.1,12.6,29.82,N/A,-737280,0.0,-999.0,82,0.00,,,0.00,207,Wunderground v.1.15,2013-02-03 06:44:00,
2013-02-03 01:45:00,5.3,3.0,29.91,North,32767,0.0,0.0,90,0.00,,,0.00,0,Wunderground v.1.15,2013-02-03 06:45:00,
2013-02-03 01:49:00,19.0,13.3,29.81,N/A,-737280,0.0,-999.0,78,0.00,,,0.00,275,Wunderground v.1.15,2013-02-03 06:49:00,
2013-02-03 01:50:00,5.3,3.0,29.90,North,32767,0.0,0.0,90,0.00,,,0.00,0,Wunderground v.1.15,2013-02-03 06:50:00,
2013-02-03 01:54:00,19.0,13.3,29.81,N/A,-737280,0.0,-999.0,78,0.00,,,0.00,275,Wunderground v.1.15,2013-02-03 06:54:00,
2013-02-03 01:56:00,5.4,3.3,29.90,North,32767,0.0,0.0,91,0.00,,,0.00,0,Wunderground v.1.15,2013-02-03 06:56:00,
2013-02-03 01:59:00,19.0,13.3,29.81,N/A,-737280,0.0,-999.0,78,0.00,,,0.00,275,Wunderground v.1.15,2013-02-03 06:59:00,
2013-02-03 02:01:00,5.5,3.4,29.90,North,32767,0.0,0.0,91,0.00,,,0.00,0,Wunderground v.1.15,2013-02-03 07:01:00,
2013-02-03 02:04:00,19.0,13.3,29.81,N/A,-737280,0.0,-999.0,78,0.00,,,0.00,275,Wunderground v.1.15,2013-02-03 07:04:00,
2013-02-03 02:06:00,5.6,3.5,29.90,North,32767,0.0,0.0,91,0.00,,,0.00,0,Wunderground v.1.15,2013-02-03 07:06:00,
2013-02-03 02:09:00,19.0,13.3,29.81,N/A,-737280,0.0,-999.0,78,0.00,,,0.00,275,Wunderground v.1.15,2013-02-03 07:09:00,
2013-02-03 02:11:00,5.8,3.7,29.90,North,32767,0.0,0.0,91,0.00,,,0.00,0,Wunderground v.1.15,2013-02-03 07:11:00,
2013-02-03 02:14:00,19.0,13.3,29.81,N/A,-737280,0.0,-999.0,78,0.00,,,0.00,275,Wunderground v.1.15,2013-02-03 07:14:00,
2013-02-03 02:16:00,6.0,3.9,29.90,North,32767,0.0,0.0,91,0.00,,,0.00,0,Wunderground v.1.15,2013-02-03 07:16:00,
2013-02-03 02:19:00,20.1,14.9,29.79,N/A,-737280,0.0,-999.0,80,0.00,,,0.00,302,Wunderground v.1.15,2013-02-03 07:19:00,
2013-02-03 02:21:00,6.0,3.9,29.90,North,32767,0.0,0.0,91,0.00,,,0.00,0,Wunderground v.1.15,2013-02-03 07:21:00,
2013-02-03 02:24:00,20.1,14.9,29.79,N/A,-737280,0.0,-999.0,80,0.00,,,0.00,302,Wunderground v.1.15,2013-02-03 07:24:00,
2013-02-03 02:26:00,6.0,3.7,29.90,North,32767,0.0,0.0,90,0.00,,,0.00,0,Wunderground v.1.15,2013-02-03 07:26:00,
2013-02-03 02:29:00,20.1,14.9,29.79,N/A,-737280,0.0,-999.0,80,0.00,,,0.00,302,Wunderground v.1.15,2013-02-03 07:29:00,
2013-02-03 02:31:00,6.0,3.7,29.90,North,32767,0.0,0.0,90,0.00,,,0.00,0,Wunderground v.1.15,2013-02-03 07:31:00,
2013-02-03 02:34:00,20.1,14.9,29.79,N/A,-737280,0.0,-999.0,80,0.00,,,0.00,302,Wunderground v.1.15,2013-02-03 07:34:00,
2013-02-03 02:36:00,5.9,3.6,29.90,North,32767,0.0,0.0,90,0.00,,,0.00,0,Wunderground v.1.15,2013-02-03 07:36:00,
2013-02-03 02:39:00,20.1,14.9,29.79,N/A,-737280,0.0,-999.0,80,0.00,,,0.00,302,Wunderground v.1.15,2013-02-03 07:39:00,
2013-02-03 02:41:00,5.8,3.3,29.89,North,32767,0.0,0.0,89,0.00,,,0.00,0,Wunderground v.1.15,2013-02-03 07:41:00,
2013-02-03 02:44:00,20.1,14.9,29.79,N/A,-737280,0.0,-999.0,80,0.00,,,0.00,302,Wunderground v.1.15,2013-02-03 07:44:00,
2013-02-03 02:46:00,5.7,3.2,29.89,North,32767,0.0,0.0,89,0.00,,,0.00,0,Wunderground v.1.15,2013-02-03 07:46:00,
2013-02-03 02:49:00,21.0,15.2,29.78,N/A,-737280,0.0,-999.0,78,0.00,,,0.00,260,Wunderground v.1.15,2013-02-03 07:49:00,
2013-02-03 02:51:00,5.6,3.1,29.89,North,32767,0.0,0.0,89,0.00,,,0.00,0,Wunderground v.1.15,2013-02-03 07:51:00,
2013-02-03 02:54:00,21.0,15.2,29.78,N/A,-737280,0.0,-999.0,78,0.00,,,0.00,260,Wunderground v.1.15,2013-02-03 07:54:00,
2013-02-03 02:56:00,5.5,3.2,29.89,North,32767,0.0,0.0,90,0.00,,,0.00,0,Wunderground v.1.15,2013-02-03 07:56:00,
2013-02-03 02:59:00,21.0,15.2,29.78,N/A,-737280,0.0,-999.0,78,0.00,,,0.00,260,Wunderground v.1.15,2013-02-03 07:59:00,
2013-02-03 03:01:00,5.4,3.1,29.89,North,32767,0.0,0.0,90,0.00,,,0.00,0,Wunderground v.1.15,2013-02-03 08:01:00,
2013-02-03 03:04:00,21.0,15.2,29.78,N/A,-737280,0.0,-999.0,78,0.00,,,0.00,260,Wunderground v.1.15,2013-02-03 08:04:00,
2013-02-03 03:06:00,5.4,3.1,29.89,North,32767,0.0,0.0,90,0.00,,,0.00,0,Wunderground v.1.15,2013-02-03 08:06:00,
2013-02-03 03:09:00,21.0,15.2,29.78,N/A,-737280,0.0,-999.0,78,0.00,,,0.00,260,Wunderground v.1.15,2013-02-03 08:09:00,
2013-02-03 03:11:00,5.4,3.1,29.89,North,32767,0.0,0.0,90,0.00,,,0.00,0,Wunderground v.1.15,2013-02-03 08:11:00,
2013-02-03 03:14:00,21.0,15.2,29.78,N/A,-737280,0.0,-999.0,78,0.00,,,0.00,260,Wunderground v.1.15,2013-02-03 08:14:00,
2013-02-03 03:16:00,5.5,3.4,29.88,North,32767,0.0,0.0,91,0.00,,,0.00,0,Wunderground v.1.15,2013-02-03 08:16:00,
2013-02-03 03:19:00,21.3,15.5,29.78,N/A,-737280,0.0,-999.0,78,0.00,,,0.00,221,Wunderground v.1.15,2013-02-03 08:19:00,
2013-02-03 03:21:00,5.6,3.5,29.88,North,32767,0.0,0.0,91,0.00,,,0.00,0,Wunderground v.1.15,2013-02-03 08:21:00,
2013-02-03 03:24:00,21.3,15.5,29.78,N/A,-737280,0.0,-999.0,78,0.00,,,0.00,221,Wunderground v.1.15,2013-02-03 08:24:00,
2013-02-03 03:26:00,5.8,3.7,29.88,North,32767,0.0,0.0,91,0.00,,,0.00,0,Wunderground v.1.15,2013-02-03 08:26:00,
2013-02-03 03:29:00,21.3,15.5,29.78,N/A,-737280,0.0,-999.0,78,0.00,,,0.00,221,Wunderground v.1.15,2013-02-03 08:29:00,
2013-02-03 03:31:00,5.9,4.1,29.88,North,32767,0.0,0.0,92,0.00,,,0.00,0,Wunderground v.1.15,2013-02-03 08:31:00,
2013-02-03 03:34:00,21.3,15.5,29.78,N/A,-737280,0.0,-999.0,78,0.00,,,0.00,221,Wunderground v.1.15,2013-02-03 08:34:00,
2013-02-03 03:36:00,6.1,4.3,29.87,North,32767,0.0,0.0,92,0.00,,,0.00,0,Wunderground v.1.15,2013-02-03 08:36:00,
2013-02-03 03:39:00,21.3,15.5,29.78,N/A,-737280,0.0,-999.0,78,0.00,,,0.00,221,Wunderground v.1.15,2013-02-03 08:39:00,
2013-02-03 03:41:00,6.2,4.4,29.87,North,32767,0.0,0.0,92,0.00,,,0.00,0,Wunderground v.1.15,2013-02-03 08:41:00,
2013-02-03 03:44:00,21.3,15.5,29.78,N/A,-737280,0.0,-999.0,78,0.00,,,0.00,221,Wunderground v.1.15,2013-02-03 08:44:00,
2013-02-03 03:46:00,6.4,4.6,29.87,North,32767,0.0,0.0,92,0.00,,,0.00,0,Wunderground v.1.15,2013-02-03 08:46:00,
2013-02-03 03:49:00,21.9,15.5,29.78,N/A,-737280,0.0,-999.0,76,0.00,,,0.00,209,Wunderground v.1.15,2013-02-03 08:49:00,
2013-02-03 03:51:00,6.5,4.7,29.87,North,32767,0.0,0.0,92,0.00,,,0.00,0,Wunderground v.1.15,2013-02-03 08:51:00,
2013-02-03 03:54:00,21.9,15.5,29.78,N/A,-737280,0.0,-999.0,76,0.00,,,0.00,209,Wunderground v.1.15,2013-02-03 08:54:00,
2013-02-03 03:56:00,6.5,4.4,29.86,North,32767,0.0,0.0,91,0.00,,,0.00,0,Wunderground v.1.15,2013-02-03 08:56:00,
2013-02-03 03:59:00,21.9,15.5,29.78,N/A,-737280,0.0,-999.0,76,0.00,,,0.00,209,Wunderground v.1.15,2013-02-03 08:59:00,
2013-02-03 04:01:00,6.5,4.4,29.86,North,32767,0.0,0.0,91,0.00,,,0.00,0,Wunderground v.1.15,2013-02-03 09:01:00,
2013-02-03 04:04:00,21.9,15.5,29.78,N/A,-737280,0.0,-999.0,76,0.00,,,0.00,209,Wunderground v.1.15,2013-02-03 09:04:00,
2013-02-03 04:06:00,6.4,4.1,29.86,North,32767,0.0,0.0,90,0.00,,,0.00,0,Wunderground v.1.15,2013-02-03 09:06:00,
2013-02-03 04:09:00,21.9,15.5,29.78,N/A,-737280,0.0,-999.0,76,0.00,,,0.00,209,Wunderground v.1.15,2013-02-03 09:09:00,
2013-02-03 04:11:00,6.3,4.0,29.86,North,32767,0.0,0.0,90,0.00,,,0.00,0,Wunderground v.1.15,2013-02-03 09:11:00,
2013-02-03 04:14:00,21.9,15.5,29.78,N/A,-737280,0.0,-999.0,76,0.00,,,0.00,209,Wunderground v.1.15,2013-02-03 09:14:00,
2013-02-03 04:16:00,6.1,3.6,29.85,North,32767,0.0,0.0,89,0.00,,,0.00,0,Wunderground v.1.15,2013-02-03 09:16:00,
2013-02-03 04:19:00,21.9,16.7,29.76,N/A,-737280,0.0,-999.0,80,0.00,,,0.00,191,Wunderground v.1.15,2013-02-03 09:19:00,
2013-02-03 04:21:00,5.9,3.4,29.86,North,32767,0.0,0.0,89,0.00,,,0.00,0,Wunderground v.1.15,2013-02-03 09:21:00,
2013-02-03 04:24:00,21.9,16.7,29.76,N/A,-737280,0.0,-999.0,80,0.00,,,0.00,191,Wunderground v.1.15,2013-02-03 09:24:00,
2013-02-03 04:26:00,5.6,2.8,29.85,North,32767,0.0,0.0,88,0.00,,,0.00,0,Wunderground v.1.15,2013-02-03 09:26:00,
2013-02-03 04:29:00,21.9,16.7,29.76,N/A,-737280,0.0,-999.0,80,0.00,,,0.00,191,Wunderground v.1.15,2013-02-03 09:29:00,
2013-02-03 04:31:00,5.4,2.6,29.85,North,32767,0.0,0.0,88,0.00,,,0.00,0,Wunderground v.1.15,2013-02-03 09:31:00,
2013-02-03 04:34:00,21.9,16.7,29.76,N/A,-737280,0.0,-999.0,80,0.00,,,0.00,191,Wunderground v.1.15,2013-02-03 09:34:00,
2013-02-03 04:36:00,5.1,2.1,29.86,North,32767,0.0,0.0,87,0.00,,,0.00,0,Wunderground v.1.15,2013-02-03 09:36:00,
2013-02-03 04:39:00,21.9,16.7,29.76,N/A,-737280,0.0,-999.0,80,0.00,,,0.00,191,Wunderground v.1.15,2013-02-03 09:39:00,
2013-02-03 04:41:00,4.8,1.8,29.85,North,32767,0.0,0.0,87,0.00,,,0.00,0,Wunderground v.1.15,2013-02-03 09:41:00,
2013-02-03 04:44:00,21.9,16.7,29.76,N/A,-737280,0.0,-999.0,80,0.00,,,0.00,191,Wunderground v.1.15,2013-02-03 09:44:00,
2013-02-03 04:46:00,4.5,1.5,29.85,North,32767,0.0,0.0,87,0.00,,,0.00,0,Wunderground v.1.15,2013-02-03 09:46:00,
2013-02-03 04:49:00,22.1,15.4,29.78,N/A,-737280,0.0,-999.0,75,0.00,,,0.00,151,Wunderground v.1.15,2013-02-03 09:49:00,
2013-02-03 04:51:00,4.2,1.2,29.85,North,32767,0.0,0.0,87,0.00,,,0.00,0,Wunderground v.1.15,2013-02-03 09:51:00,
2013-02-03 04:54:00,22.1,15.4,29.78,N/A,-737280,0.0,-999.0,75,0.00,,,0.00,151,Wunderground v.1.15,2013-02-03 09:54:00,
2013-02-03 04:56:00,4.0,1.0,29.85,North,32767,0.0,0.0,87,0.00,,,0.00,0,Wunderground v.1.15,2013-02-03 09:56:00,
2013-02-03 04:59:00,22.1,15.4,29.78,N/A,-737280,0.0,-999.0,75,0.00,,,0.00,151,Wunderground v.1.15,2013-02-03 09:59:00,
2013-02-03 05:01:00,3.7,0.7,29.85,North,32767,0.0,0.0,87,0.00,,,0.00,0,Wunderground v.1.15,2013-02-03 10:01:00,
2013-02-03 05:04:00,22.1,15.4,29.78,N/A,-737280,0.0,-999.0,75,0.00,,,0.00,151,Wunderground v.1.15,2013-02-03 10:04:00,
2013-02-03 05:06:00,3.4,0.4,29.85,North,32767,0.0,0.0,87,0.00,,,0.00,0,Wunderground v.1.15,2013-02-03 10:06:00,
2013-02-03 05:09:00,22.1,15.4,29.78,N/A,-737280,0.0,-999.0,75,0.00,,,0.00,151,Wunderground v.1.15,2013-02-03 10:09:00,
2013-02-03 05:11:00,3.2,0.2,29.85,North,32767,0.0,0.0,87,0.00,,,0.00,0,Wunderground v.1.15,2013-02-03 10:11:00,
2013-02-03 05:14:00,22.1,15.4,29.78,N/A,-737280,0.0,-999.0,75,0.00,,,0.00,151,Wunderground v.1.15,2013-02-03 10:14:00,
2013-02-03 05:16:00,3.0,0.3,29.85,North,32767,0.0,0.0,88,0.00,,,0.00,0,Wunderground v.1.15,2013-02-03 10:16:00,
2013-02-03 05:19:00,21.6,16.4,29.78,N/A,-737280,0.0,-999.0,80,0.00,,,0.00,108,Wunderground v.1.15,2013-02-03 10:19:00,
2013-02-03 05:21:00,2.7,-0.3,29.85,North,32767,0.0,0.0,87,0.00,,,0.00,0,Wunderground v.1.15,2013-02-03 10:21:00,
2013-02-03 05:24:00,21.6,16.4,29.78,N/A,-737280,0.0,-999.0,80,0.00,,,0.00,108,Wunderground v.1.15,2013-02-03 10:24:00,
2013-02-03 05:26:00,2.6,-0.1,29.85,North,32767,0.0,0.0,88,0.00,,,0.00,0,Wunderground v.1.15,2013-02-03 10:26:00,
2013-02-03 05:29:00,21.6,16.4,29.78,N/A,-737280,0.0,-999.0,80,0.00,,,0.00,108,Wunderground v.1.15,2013-02-03 10:29:00,
2013-02-03 05:31:00,2.5,-0.2,29.85,North,32767,0.0,0.0,88,0.00,,,0.00,0,Wunderground v.1.15,2013-02-03 10:31:00,
2013-02-03 05:34:00,21.6,16.4,29.78,N/A,-737280,0.0,-999.0,80,0.00,,,0.00,108,Wunderground v.1.15,2013-02-03 10:34:00,
2013-02-03 05:36:00,2.5,-0.2,29.85,North,32767,0.0,0.0,88,0.00,,,0.00,0,Wunderground v.1.15,2013-02-03 10:36:00,
2013-02-03 05:39:00,21.6,16.4,29.78,N/A,-737280,0.0,-999.0,80,0.00,,,0.00,108,Wunderground v.1.15,2013-02-03 10:39:00,
2013-02-03 05:41:00,2.4,-0.1,29.85,North,32767,0.0,0.0,89,0.00,,,0.00,0,Wunderground v.1.15,2013-02-03 10:41:00,
2013-02-03 05:44:00,21.6,16.4,29.78,N/A,-737280,0.0,-999.0,80,0.00,,,0.00,108,Wunderground v.1.15,2013-02-03 10:44:00,
2013-02-03 05:46:00,2.4,-0.1,29.85,North,32767,0.0,0.0,89,0.00,,,0.00,0,Wunderground v.1.15,2013-02-03 10:46:00,
2013-02-03 05:49:00,20.8,17.8,29.80,N/A,-737280,0.0,-999.0,88,0.00,,,0.00,66,Wunderground v.1.15,2013-02-03 10:49:00,
2013-02-03 05:51:00,2.5,0.0,29.85,North,32767,0.0,0.0,89,0.00,,,0.00,0,Wunderground v.1.15,2013-02-03 10:51:00,
2013-02-03 05:54:00,20.8,17.8,29.80,N/A,-737280,0.0,-999.0,88,0.00,,,0.00,66,Wunderground v.1.15,2013-02-03 10:54:00,
2013-02-03 05:56:00,2.6,0.3,29.85,North,32767,0.0,0.0,90,0.00,,,0.00,0,Wunderground v.1.15,2013-02-03 10:56:00,
2013-02-03 05:59:00,20.8,17.8,29.80,N/A,-737280,0.0,-999.0,88,0.00,,,0.00,66,Wunderground v.1.15,2013-02-03 10:59:00,
2013-02-03 06:01:00,2.7,0.4,29.85,North,32767,0.0,0.0,90,0.00,,,0.00,0,Wunderground v.1.15,2013-02-03 11:01:00,
2013-02-03 06:04:00,20.8,17.8,29.80,N/A,-737280,0.0,-999.0,88,0.00,,,0.00,66,Wunderground v.1.15,2013-02-03 11:04:00,
2013-02-03 06:06:00,2.7,0.4,29.85,North,32767,0.0,0.0,90,0.00,,,0.00,0,Wunderground v.1.15,2013-02-03 11:06:00,
2013-02-03 06:09:00,20.8,17.8,29.80,N/A,-737280,0.0,-999.0,88,0.00,,,0.00,66,Wunderground v.1.15,2013-02-03 11:09:00,
2013-02-03 06:12:00,2.8,0.5,29.85,North,32767,0.0,0.0,90,0.00,,,0.00,0,Wunderground v.1.15,2013-02-03 11:12:00,
2013-02-03 06:14:00,20.8,17.8,29.80,N/A,-737280,0.0,-999.0,88,0.00,,,0.00,66,Wunderground v.1.15,2013-02-03 11:14:00,
2013-02-03 06:17:00,3.0,1.0,29.85,North,32767,0.0,0.0,91,0.00,,,0.00,0,Wunderground v.1.15,2013-02-03 11:17:00,
2013-02-03 06:19:00,20.2,17.2,29.80,N/A,-737280,0.0,-999.0,88,0.00,,,0.00,44,Wunderground v.1.15,2013-02-03 11:19:00,
2013-02-03 06:22:00,3.3,1.5,29.85,North,32767,0.0,0.0,92,0.00,,,0.00,0,Wunderground v.1.15,2013-02-03 11:22:00,
2013-02-03 06:24:00,20.2,17.2,29.80,N/A,-737280,0.0,-999.0,88,0.00,,,0.00,44,Wunderground v.1.15,2013-02-03 11:24:00,
2013-02-03 06:27:00,3.5,1.7,29.85,North,32767,0.0,0.0,92,0.00,,,0.00,0,Wunderground v.1.15,2013-02-03 11:27:00,
2013-02-03 06:29:00,20.2,17.2,29.80,N/A,-737280,0.0,-999.0,88,0.00,,,0.00,44,Wunderground v.1.15,2013-02-03 11:29:00,
2013-02-03 06:32:00,4.0,2.4,29.85,North,32767,0.0,0.0,93,0.00,,,0.00,0,Wunderground v.1.15,2013-02-03 11:32:00,
2013-02-03 06:34:00,20.2,17.2,29.80,N/A,-737280,0.0,-999.0,88,0.00,,,0.00,44,Wunderground v.1.15,2013-02-03 11:34:00,
2013-02-03 06:37:00,4.3,2.7,29.84,North,32767,0.0,0.0,93,0.00,,,0.00,0,Wunderground v.1.15,2013-02-03 11:37:00,
2013-02-03 06:39:00,20.2,17.2,29.80,N/A,-737280,0.0,-999.0,88,0.00,,,0.00,44,Wunderground v.1.15,2013-02-03 11:39:00,
2013-02-03 06:42:00,4.8,3.5,29.84,North,32767,0.0,0.0,94,0.00,,,0.00,0,Wunderground v.1.15,2013-02-03 11:42:00,
2013-02-03 06:44:00,20.2,17.2,29.80,N/A,-737280,0.0,-999.0,88,0.00,,,0.00,44,Wunderground v.1.15,2013-02-03 11:44:00,
2013-02-03 06:47:00,5.5,4.4,29.84,North,32767,0.0,0.0,95,0.00,,,0.00,0,Wunderground v.1.15,2013-02-03 11:47:00,
2013-02-03 06:49:00,20.4,16.9,29.81,N/A,-737280,0.0,-999.0,86,0.00,,,0.00,32,Wunderground v.1.15,2013-02-03 11:49:00,
2013-02-03 06:52:00,6.2,5.1,29.84,North,32767,0.0,0.0,95,0.00,,,0.00,0,Wunderground v.1.15,2013-02-03 11:52:00,
2013-02-03 06:54:00,20.4,16.9,29.81,N/A,-737280,0.0,-999.0,86,0.00,,,0.00,32,Wunderground v.1.15,2013-02-03 11:54:00,
2013-02-03 06:57:00,6.4,5.0,29.84,North,32767,0.0,0.0,94,0.00,,,0.00,0,Wunderground v.1.15,2013-02-03 11:57:00,
2013-02-03 06:59:00,20.4,16.9,29.81,N/A,-737280,0.0,-999.0,86,0.00,,,0.00,32,Wunderground v.1.15,2013-02-03 11:59:00,
2013-02-03 07:02:00,6.4,5.0,29.84,North,32767,0.0,0.0,94,0.00,,,0.00,0,Wunderground v.1.15,2013-02-03 12:02:00,
2013-02-03 07:04:00,20.4,16.9,29.81,N/A,-737280,0.0,-999.0,86,0.00,,,0.00,32,Wunderground v.1.15,2013-02-03 12:04:00,
2013-02-03 07:07:00,-999.9,-99.9,29.84,North,32767,-999.0,0.0,255,-99.99,,,0.00,,Wunderground v.1.15,2013-02-03 12:07:00,
2013-02-03 07:09:00,20.4,16.9,29.81,N/A,-737280,0.0,-999.0,86,0.00,,,0.00,32,Wunderground v.1.15,2013-02-03 12:09:00,
2013-02-03 07:12:00,-999.9,-99.9,29.84,North,32767,-999.0,-999.0,255,-99.99,,,0.00,,Wunderground v.1.15,2013-02-03 12:12:00,
2013-02-03 07:14:00,20.4,16.9,29.81,N/A,-737280,0.0,-999.0,86,0.00,,,0.00,32,Wunderground v.1.15,2013-02-03 12:14:00,
2013-02-03 07:17:00,-999.9,-99.9,29.84,North,32767,-999.0,-999.0,255,-99.99,,,0.00,,Wunderground v.1.15,2013-02-03 12:17:00,
2013-02-03 07:19:00,19.5,15.7,29.83,N/A,-737280,0.0,-999.0,85,0.00,,,0.00,8,Wunderground v.1.15,2013-02-03 12:19:00,
2013-02-03 07:22:00,-999.9,-99.9,29.84,North,32767,-999.0,-999.0,255,-99.99,,,0.00,,Wunderground v.1.15,2013-02-03 12:22:00,
2013-02-03 07:24:00,19.5,15.7,29.83,N/A,-737280,0.0,-999.0,85,0.00,,,0.00,8,Wunderground v.1.15,2013-02-03 12:24:00,
2013-02-03 07:27:00,-999.9,-99.9,29.84,North,32767,-999.0,-999.0,255,-99.99,,,0.00,,Wunderground v.1.15,2013-02-03 12:27:00,
2013-02-03 07:29:00,19.5,15.7,29.83,N/A,-737280,0.0,-999.0,85,0.00,,,0.00,8,Wunderground v.1.15,2013-02-03 12:29:00,
2013-02-03 07:32:00,-999.9,-99.9,29.84,North,32767,-999.0,-999.0,255,-99.99,,,0.00,,Wunderground v.1.15,2013-02-03 12:32:00,
2013-02-03 07:34:00,19.5,15.7,29.83,N/A,-737280,0.0,-999.0,85,0.00,,,0.00,8,Wunderground v.1.15,2013-02-03 12:34:00,
2013-02-03 07:37:00,-999.9,-99.9,29.84,North,32767,-999.0,-999.0,255,-99.99,,,0.00,,Wunderground v.1.15,2013-02-03 12:37:00,
2013-02-03 07:39:00,19.5,15.7,29.83,N/A,-737280,0.0,-999.0,85,0.00,,,0.00,8,Wunderground v.1.15,2013-02-03 12:39:00,
2013-02-03 07:42:00,-999.9,-99.9,29.84,North,32767,-999.0,-999.0,255,-99.99,,,0.00,,Wunderground v.1.15,2013-02-03 12:42:00,
2013-02-03 07:44:00,19.5,15.7,29.83,N/A,-737280,0.0,-999.0,85,0.00,,,0.00,8,Wunderground v.1.15,2013-02-03 12:44:00,
2013-02-03 07:47:00,-999.9,-99.9,29.84,North,32767,-999.0,-999.0,255,-99.99,,,0.00,,Wunderground v.1.15,2013-02-03 12:47:00,
2013-02-03 07:49:00,18.7,13.6,29.84,N/A,-737280,0.0,-999.0,80,0.00,,,0.00,0,Wunderground v.1.15,2013-02-03 12:49:00,
2013-02-03 07:52:00,-999.9,-99.9,29.84,North,32767,-999.0,-999.0,255,-99.99,,,0.00,,Wunderground v.1.15,2013-02-03 12:52:00,
2013-02-03 07:54:00,18.7,13.6,29.84,N/A,-737280,0.0,-999.0,80,0.00,,,0.00,0,Wunderground v.1.15,2013-02-03 12:54:00,
2013-02-03 07:57:00,-999.9,-99.9,29.83,North,32767,-999.0,-999.0,255,-99.99,,,0.00,,Wunderground v.1.15,2013-02-03 12:57:00,
2013-02-03 07:59:00,18.7,13.6,29.84,N/A,-737280,0.0,-999.0,80,0.00,,,0.00,0,Wunderground v.1.15,2013-02-03 12:59:00,
2013-02-03 08:02:00,-999.9,-99.9,29.84,North,32767,-999.0,-999.0,255,-99.99,,,0.00,,Wunderground v.1.15,2013-02-03 13:02:00,
2013-02-03 08:04:00,18.7,13.6,29.84,N/A,-737280,0.0,-999.0,80,0.00,,,0.00,0,Wunderground v.1.15,2013-02-03 13:04:00,
2013-02-03 08:07:00,-999.9,-99.9,29.84,North,32767,-999.0,-999.0,255,-99.99,,,0.00,,Wunderground v.1.15,2013-02-03 13:07:00,
2013-02-03 08:09:00,18.7,13.6,29.84,N/A,-737280,0.0,-999.0,80,0.00,,,0.00,0,Wunderground v.1.15,2013-02-03 13:09:00,
2013-02-03 08:12:00,-999.9,-99.9,29.84,North,32767,-999.0,-999.0,255,-99.99,,,0.00,,Wunderground v.1.15,2013-02-03 13:12:00,
2013-02-03 08:14:00,18.7,13.6,29.84,N/A,-737280,0.0,-999.0,80,0.00,,,0.00,0,Wunderground v.1.15,2013-02-03 13:14:00,
2013-02-03 08:17:00,-999.9,-99.9,29.84,North,32767,-999.0,-999.0,255,-99.99,,,0.00,,Wunderground v.1.15,2013-02-03 13:17:00,
2013-02-03 08:19:00,18.5,13.9,29.86,N/A,-737280,0.0,-999.0,82,0.00,,,0.00,0,Wunderground v.1.15,2013-02-03 13:19:00,
2013-02-03 08:22:00,-999.9,-99.9,29.84,North,32767,-999.0,-999.0,255,-99.99,,,0.00,,Wunderground v.1.15,2013-02-03 13:22:00,
2013-02-03 08:24:00,18.5,13.9,29.86,N/A,-737280,0.0,-999.0,82,0.00,,,0.00,0,Wunderground v.1.15,2013-02-03 13:24:00,
2013-02-03 08:27:00,-999.9,-99.9,29.83,North,32767,-999.0,-999.0,255,-99.99,,,0.00,,Wunderground v.1.15,2013-02-03 13:27:00,
2013-02-03 08:29:00,18.5,13.9,29.86,N/A,-737280,0.0,-999.0,82,0.00,,,0.00,0,Wunderground v.1.15,2013-02-03 13:29:00,
2013-02-03 08:32:00,-999.9,-99.9,29.83,North,32767,-999.0,-999.0,255,-99.99,,,0.00,,Wunderground v.1.15,2013-02-03 13:32:00,
2013-02-03 08:34:00,18.5,13.9,29.86,N/A,-737280,0.0,-999.0,82,0.00,,,0.00,0,Wunderground v.1.15,2013-02-03 13:34:00,
2013-02-03 08:37:00,-999.9,-99.9,29.83,North,32767,-999.0,-999.0,255,-99.99,,,0.00,,Wunderground v.1.15,2013-02-03 13:37:00,
2013-02-03 08:39:00,18.5,13.9,29.86,N/A,-737280,0.0,-999.0,82,0.00,,,0.00,0,Wunderground v.1.15,2013-02-03 13:39:00,
2013-02-03 08:42:00,-999.9,-99.9,29.83,North,32767,-999.0,-999.0,255,-99.99,,,0.00,,Wunderground v.1.15,2013-02-03 13:42:00,
2013-02-03 08:44:00,18.5,13.9,29.86,N/A,-737280,0.0,-999.0,82,0.00,,,0.00,0,Wunderground v.1.15,2013-02-03 13:44:00,
2013-02-03 08:47:00,9.2,6.6,29.83,North,32767,0.0,0.0,89,0.00,,,0.00,28,Wunderground v.1.15,2013-02-03 13:47:00,
2013-02-03 08:49:00,17.9,13.1,29.87,N/A,-737280,0.0,-999.0,81,0.00,,,0.00,0,Wunderground v.1.15,2013-02-03 13:49:00,
2013-02-03 08:52:00,9.4,6.8,29.84,North,32767,0.0,0.0,89,0.00,,,0.00,37,Wunderground v.1.15,2013-02-03 13:52:00,
2013-02-03 08:54:00,17.9,13.1,29.87,N/A,-737280,0.0,-999.0,81,0.00,,,0.00,0,Wunderground v.1.15,2013-02-03 13:54:00,
2013-02-03 08:57:00,9.4,6.8,29.84,North,32767,0.0,0.0,89,0.00,,,0.00,39,Wunderground v.1.15,2013-02-03 13:57:00,
2013-02-03 08:59:00,17.9,13.1,29.87,N/A,-737280,0.0,-999.0,81,0.00,,,0.00,0,Wunderground v.1.15,2013-02-03 13:59:00,
2013-02-03 09:02:00,9.5,6.7,29.84,North,32767,0.0,0.0,88,0.00,,,0.00,42,Wunderground v.1.15,2013-02-03 14:02:00,
2013-02-03 09:04:00,17.9,13.1,29.87,N/A,-737280,0.0,-999.0,81,0.00,,,0.00,0,Wunderground v.1.15,2013-02-03 14:04:00,
2013-02-03 09:07:00,9.5,6.7,29.84,North,32767,0.0,0.0,88,0.00,,,0.00,35,Wunderground v.1.15,2013-02-03 14:07:00,
2013-02-03 09:09:00,17.9,13.1,29.87,N/A,-737280,0.0,-999.0,81,0.00,,,0.00,0,Wunderground v.1.15,2013-02-03 14:09:00,
2013-02-03 09:12:00,9.6,6.8,29.84,North,32767,0.0,0.0,88,0.00,,,0.00,37,Wunderground v.1.15,2013-02-03 14:12:00,
2013-02-03 09:14:00,17.9,13.1,29.87,N/A,-737280,0.0,-999.0,81,0.00,,,0.00,0,Wunderground v.1.15,2013-02-03 14:14:00,
2013-02-03 09:17:00,9.7,6.9,29.85,North,32767,0.0,0.0,88,0.00,,,0.00,98,Wunderground v.1.15,2013-02-03 14:17:00,
2013-02-03 09:19:00,17.5,11.8,29.89,N/A,-737280,0.0,-999.0,78,0.00,,,0.00,0,Wunderground v.1.15,2013-02-03 14:19:00,
2013-02-03 09:22:00,10.0,7.4,29.85,North,32767,0.0,0.0,89,0.00,,,0.00,109,Wunderground v.1.15,2013-02-03 14:22:00,
2013-02-03 09:24:00,17.5,11.8,29.89,N/A,-737280,0.0,-999.0,78,0.00,,,0.00,0,Wunderground v.1.15,2013-02-03 14:24:00,
2013-02-03 09:27:00,10.5,7.9,29.84,North,32767,0.0,0.0,89,0.00,,,0.00,86,Wunderground v.1.15,2013-02-03 14:27:00,
2013-02-03 09:29:00,17.5,11.8,29.89,N/A,-737280,0.0,-999.0,78,0.00,,,0.00,0,Wunderground v.1.15,2013-02-03 14:29:00,
2013-02-03 09:32:00,11.0,8.4,29.85,North,32767,0.0,0.0,89,0.00,,,0.00,83,Wunderground v.1.15,2013-02-03 14:32:00,
2013-02-03 09:34:00,17.5,11.8,29.89,N/A,-737280,0.0,-999.0,78,0.00,,,0.00,0,Wunderground v.1.15,2013-02-03 14:34:00,
2013-02-03 09:37:00,11.6,9.0,29.85,North,32767,0.0,0.0,89,0.00,,,0.00,83,Wunderground v.1.15,2013-02-03 14:37:00,
2013-02-03 09:39:00,17.5,11.8,29.89,N/A,-737280,0.0,-999.0,78,0.00,,,0.00,0,Wunderground v.1.15,2013-02-03 14:39:00,
2013-02-03 09:42:00,12.1,9.2,29.85,North,32767,0.0,0.0,88,0.00,,,0.00,93,Wunderground v.1.15,2013-02-03 14:42:00,
2013-02-03 09:44:00,17.5,11.8,29.89,N/A,-737280,0.0,-999.0,78,0.00,,,0.00,0,Wunderground v.1.15,2013-02-03 14:44:00,
2013-02-03 09:47:00,12.5,9.4,29.84,North,32767,0.0,0.0,87,0.00,,,0.00,93,Wunderground v.1.15,2013-02-03 14:47:00,
2013-02-03 09:49:00,16.9,9.4,29.90,N/A,-737280,0.0,-999.0,72,0.00,,,0.00,0,Wunderground v.1.15,2013-02-03 14:49:00,
2013-02-03 09:52:00,12.6,8.9,29.84,North,32767,0.0,0.0,85,0.00,,,0.00,79,Wunderground v.1.15,2013-02-03 14:52:00,
2013-02-03 09:54:00,16.9,9.4,29.90,N/A,-737280,0.0,-999.0,72,0.00,,,0.00,0,Wunderground v.1.15,2013-02-03 14:54:00,
2013-02-03 09:57:00,12.7,9.0,29.84,North,32767,0.0,0.0,85,0.00,,,0.00,65,Wunderground v.1.15,2013-02-03 14:57:00,
2013-02-03 09:59:00,16.9,9.4,29.90,N/A,-737280,0.0,-999.0,72,0.00,,,0.00,0,Wunderground v.1.15,2013-02-03 14:59:00,
2013-02-03 10:02:00,12.6,8.7,29.84,North,32767,0.0,0.0,84,0.00,,,0.00,69,Wunderground v.1.15,2013-02-03 15:02:00,
2013-02-03 10:04:00,16.9,9.4,29.90,N/A,-737280,0.0,-999.0,72,0.00,,,0.00,0,Wunderground v.1.15,2013-02-03 15:04:00,
2013-02-03 10:07:00,12.7,8.8,29.83,North,32767,0.0,0.0,84,0.00,,,0.00,100,Wunderground v.1.15,2013-02-03 15:07:00,
2013-02-03 10:09:00,16.9,9.4,29.90,N/A,-737280,0.0,-999.0,72,0.00,,,0.00,0,Wunderground v.1.15,2013-02-03 15:09:00,
2013-02-03 10:12:00,12.8,8.9,29.83,North,32767,0.0,0.0,84,0.00,,,0.00,105,Wunderground v.1.15,2013-02-03 15:12:00,
2013-02-03 10:14:00,16.9,9.4,29.90,N/A,-737280,0.0,-999.0,72,0.00,,,0.00,0,Wunderground v.1.15,2013-02-03 15:14:00,
2013-02-03 10:17:00,13.1,9.2,29.83,North,32767,0.0,0.0,84,0.00,,,0.00,107,Wunderground v.1.15,2013-02-03 15:17:00,
2013-02-03 10:19:00,16.7,8.9,29.91,N/A,-737280,0.0,-999.0,71,0.00,,,0.00,0,Wunderground v.1.15,2013-02-03 15:19:00,
2013-02-03 10:22:00,13.4,9.5,29.83,North,32767,0.0,0.0,84,0.00,,,0.00,113,Wunderground v.1.15,2013-02-03 15:22:00,
2013-02-03 10:24:00,16.7,8.9,29.91,N/A,-737280,0.0,-999.0,71,0.00,,,0.00,0,Wunderground v.1.15,2013-02-03 15:24:00,
2013-02-03 10:27:00,13.7,9.8,29.83,North,32767,0.0,0.0,84,0.00,,,0.00,142,Wunderground v.1.15,2013-02-03 15:27:00,
2013-02-03 10:29:00,16.7,8.9,29.91,N/A,-737280,0.0,-999.0,71,0.00,,,0.00,0,Wunderground v.1.15,2013-02-03 15:29:00,
2013-02-03 10:32:00,14.3,10.4,29.83,North,32767,0.0,0.0,84,0.00,,,0.00,160,Wunderground v.1.15,2013-02-03 15:32:00,
2013-02-03 10:34:00,16.7,8.9,29.91,N/A,-737280,0.0,-999.0,71,0.00,,,0.00,0,Wunderground v.1.15,2013-02-03 15:34:00,
2013-02-03 10:37:00,14.8,10.6,29.83,North,32767,0.0,0.0,83,0.00,,,0.00,162,Wunderground v.1.15,2013-02-03 15:37:00,
2013-02-03 10:39:00,16.7,8.9,29.91,N/A,-737280,0.0,-999.0,71,0.00,,,0.00,0,Wunderground v.1.15,2013-02-03 15:39:00,
2013-02-03 10:42:00,15.0,10.5,29.83,North,32767,0.0,0.0,82,0.00,,,0.00,178,Wunderground v.1.15,2013-02-03 15:42:00,
2013-02-03 10:44:00,16.7,8.9,29.91,N/A,-737280,0.0,-999.0,71,0.00,,,0.00,0,Wunderground v.1.15,2013-02-03 15:44:00,
2013-02-03 10:47:00,15.2,10.7,29.83,North,32767,0.0,0.0,82,0.00,,,0.00,179,Wunderground v.1.15,2013-02-03 15:47:00,
2013-02-03 10:49:00,16.6,8.8,29.92,N/A,-737280,0.0,-999.0,71,0.00,,,0.00,0,Wunderground v.1.15,2013-02-03 15:49:00,
2013-02-03 10:52:00,15.4,11.2,29.83,North,32767,0.0,0.0,83,0.00,,,0.00,188,Wunderground v.1.15,2013-02-03 15:52:00,
2013-02-03 10:54:00,16.6,8.8,29.92,N/A,-737280,0.0,-999.0,71,0.00,,,0.00,0,Wunderground v.1.15,2013-02-03 15:54:00,
2013-02-03 10:57:00,15.7,10.9,29.83,North,32767,0.0,0.0,81,0.00,,,0.00,192,Wunderground v.1.15,2013-02-03 15:57:00,
2013-02-03 10:59:00,16.6,8.8,29.92,N/A,-737280,0.0,-999.0,71,0.00,,,0.00,0,Wunderground v.1.15,2013-02-03 15:59:00,
2013-02-03 11:02:00,15.8,11.3,29.83,North,32767,0.0,0.0,82,0.00,,,0.00,183,Wunderground v.1.15,2013-02-03 16:02:00,
2013-02-03 11:04:00,16.6,8.8,29.92,N/A,-737280,0.0,-999.0,71,0.00,,,0.00,0,Wunderground v.1.15,2013-02-03 16:04:00,
2013-02-03 11:07:00,15.9,11.1,29.83,North,32767,0.0,0.0,81,0.00,,,0.00,220,Wunderground v.1.15,2013-02-03 16:07:00,
2013-02-03 11:09:00,16.6,8.8,29.92,N/A,-737280,0.0,-999.0,71,0.00,,,0.00,0,Wunderground v.1.15,2013-02-03 16:09:00,
2013-02-03 11:12:00,16.1,11.3,29.83,North,32767,0.0,0.0,81,0.00,,,0.00,195,Wunderground v.1.15,2013-02-03 16:12:00,
2013-02-03 11:14:00,16.6,8.8,29.92,N/A,-737280,0.0,-999.0,71,0.00,,,0.00,0,Wunderground v.1.15,2013-02-03 16:14:00,
2013-02-03 11:17:00,16.2,11.4,29.82,North,32767,0.0,0.0,81,0.00,,,0.00,181,Wunderground v.1.15,2013-02-03 16:17:00,
2013-02-03 11:19:00,16.4,9.3,29.92,N/A,-737280,0.0,-999.0,73,0.00,,,0.00,0,Wunderground v.1.15,2013-02-03 16:19:00,
2013-02-03 11:22:00,16.3,11.8,29.82,North,32767,0.0,0.0,82,0.00,,,0.00,193,Wunderground v.1.15,2013-02-03 16:22:00,
2013-02-03 11:24:00,16.4,9.3,29.92,N/A,-737280,0.0,-999.0,73,0.00,,,0.00,0,Wunderground v.1.15,2013-02-03 16:24:00,
2013-02-03 11:27:00,16.4,11.6,29.82,North,32767,0.0,0.0,81,0.00,,,0.00,214,Wunderground v.1.15,2013-02-03 16:27:00,
2013-02-03 11:29:00,16.4,9.3,29.92,N/A,-737280,0.0,-999.0,73,0.00,,,0.00,0,Wunderground v.1.15,2013-02-03 16:29:00,
2013-02-03 11:32:00,16.6,12.1,29.82,North,32767,0.0,0.0,82,0.00,,,0.00,213,Wunderground v.1.15,2013-02-03 16:32:00,
2013-02-03 11:34:00,16.4,9.3,29.92,N/A,-737280,0.0,-999.0,73,0.00,,,0.00,0,Wunderground v.1.15,2013-02-03 16:34:00,
2013-02-03 11:37:00,16.9,12.4,29.82,North,32767,0.0,0.0,82,0.00,,,0.00,232,Wunderground v.1.15,2013-02-03 16:37:00,
2013-02-03 11:39:00,16.4,9.3,29.92,N/A,-737280,0.0,-999.0,73,0.00,,,0.00,0,Wunderground v.1.15,2013-02-03 16:39:00,
2013-02-03 11:42:00,17.4,12.8,29.82,North,32767,0.0,0.0,82,0.00,,,0.00,265,Wunderground v.1.15,2013-02-03 16:42:00,
2013-02-03 11:44:00,16.4,9.3,29.92,N/A,-737280,0.0,-999.0,73,0.00,,,0.00,0,Wunderground v.1.15,2013-02-03 16:44:00,
2013-02-03 11:47:00,17.8,13.0,29.82,North,32767,0.0,0.0,81,0.00,,,0.00,260,Wunderground v.1.15,2013-02-03 16:47:00,
2013-02-03 11:49:00,16.3,9.8,29.92,N/A,-737280,0.0,-999.0,75,0.00,,,0.00,0,Wunderground v.1.15,2013-02-03 16:49:00,
2013-02-03 11:52:00,18.2,13.3,29.81,North,32767,0.0,0.0,81,0.00,,,0.00,246,Wunderground v.1.15,2013-02-03 16:52:00,
2013-02-03 11:54:00,16.3,9.8,29.92,N/A,-737280,0.0,-999.0,75,0.00,,,0.00,0,Wunderground v.1.15,2013-02-03 16:54:00,
2013-02-03 11:57:00,18.3,13.2,29.81,North,32767,0.0,0.0,80,0.00,,,0.00,309,Wunderground v.1.15,2013-02-03 16:57:00,
2013-02-03 11:59:00,16.3,9.8,29.92,N/A,-737280,0.0,-999.0,75,0.00,,,0.00,0,Wunderground v.1.15,2013-02-03 16:59:00,
2013-02-03 12:02:00,18.5,13.1,29.81,North,32767,0.0,0.0,79,0.00,,,0.00,294,Wunderground v.1.15,2013-02-03 17:02:00,
2013-02-03 12:04:00,16.3,9.8,29.92,N/A,-737280,0.0,-999.0,75,0.00,,,0.00,0,Wunderground v.1.15,2013-02-03 17:04:00,
2013-02-03 12:07:00,18.9,13.5,29.81,North,32767,0.0,0.0,79,0.00,,,0.00,279,Wunderground v.1.15,2013-02-03 17:07:00,
2013-02-03 12:09:00,16.3,9.8,29.92,N/A,-737280,0.0,-999.0,75,0.00,,,0.00,0,Wunderground v.1.15,2013-02-03 17:09:00,
2013-02-03 12:12:00,18.9,13.5,29.80,North,32767,0.0,0.0,79,0.00,,,0.00,264,Wunderground v.1.15,2013-02-03 17:12:00,
2013-02-03 12:14:00,16.3,9.8,29.92,N/A,-737280,0.0,-999.0,75,0.00,,,0.00,0,Wunderground v.1.15,2013-02-03 17:14:00,
2013-02-03 12:17:00,19.0,13.6,29.80,North,32767,0.0,0.0,79,0.00,,,0.00,306,Wunderground v.1.15,2013-02-03 17:17:00,
2013-02-03 12:19:00,16.3,10.1,29.93,N/A,-737280,0.0,-999.0,76,0.00,,,0.00,0,Wunderground v.1.15,2013-02-03 17:19:00,
2013-02-03 12:22:00,19.2,13.8,29.80,North,32767,0.0,0.0,79,0.00,,,0.00,313,Wunderground v.1.15,2013-02-03 17:22:00,
2013-02-03 12:24:00,16.3,10.1,29.93,N/A,-737280,0.0,-999.0,76,0.00,,,0.00,0,Wunderground v.1.15,2013-02-03 17:24:00,
2013-02-03 12:27:00,19.5,13.8,29.80,North,32767,0.0,0.0,78,0.00,,,0.00,318,Wunderground v.1.15,2013-02-03 17:27:00,
2013-02-03 12:29:00,16.3,10.1,29.93,N/A,-737280,0.0,-999.0,76,0.00,,,0.00,0,Wunderground v.1.15,2013-02-03 17:29:00,
2013-02-03 12:32:00,19.6,14.1,29.80,North,32767,0.0,0.0,79,0.00,,,0.00,318,Wunderground v.1.15,2013-02-03 17:32:00,
2013-02-03 12:34:00,16.3,10.1,29.93,N/A,-737280,0.0,-999.0,76,0.00,,,0.00,0,Wunderground v.1.15,2013-02-03 17:34:00,
2013-02-03 12:37:00,19.9,14.1,29.80,North,32767,0.0,0.0,78,0.00,,,0.00,306,Wunderground v.1.15,2013-02-03 17:37:00,
2013-02-03 12:39:00,16.3,10.1,29.93,N/A,-737280,0.0,-999.0,76,0.00,,,0.00,0,Wunderground v.1.15,2013-02-03 17:39:00,
2013-02-03 12:42:00,20.2,14.4,29.79,North,32767,0.0,0.0,78,0.00,,,0.00,230,Wunderground v.1.15,2013-02-03 17:42:00,
2013-02-03 12:44:00,16.3,10.1,29.93,N/A,-737280,0.0,-999.0,76,0.00,,,0.00,0,Wunderground v.1.15,2013-02-03 17:44:00,
2013-02-03 12:47:00,20.3,14.2,29.79,North,32767,0.0,0.0,77,0.00,,,0.00,250,Wunderground v.1.15,2013-02-03 17:47:00,
2013-02-03 12:49:00,16.3,10.6,29.93,N/A,-737280,0.0,-999.0,78,0.00,,,0.00,0,Wunderground v.1.15,2013-02-03 17:49:00,
2013-02-03 12:52:00,20.3,14.5,29.79,North,32767,0.0,0.0,78,0.00,,,0.00,255,Wunderground v.1.15,2013-02-03 17:52:00,
2013-02-03 12:54:00,16.3,10.6,29.93,N/A,-737280,0.0,-999.0,78,0.00,,,0.00,0,Wunderground v.1.15,2013-02-03 17:54:00,
2013-02-03 12:57:00,20.6,14.8,29.79,North,32767,0.0,0.0,78,0.00,,,0.00,230,Wunderground v.1.15,2013-02-03 17:57:00,
2013-02-03 12:59:00,16.3,10.6,29.93,N/A,-737280,0.0,-999.0,78,0.00,,,0.00,0,Wunderground v.1.15,2013-02-03 17:59:00,
2013-02-03 13:02:00,20.8,15.0,29.78,North,32767,0.0,0.0,78,0.00,,,0.00,248,Wunderground v.1.15,2013-02-03 18:02:00,
2013-02-03 13:04:00,16.3,10.6,29.93,N/A,-737280,0.0,-999.0,78,0.00,,,0.00,0,Wunderground v.1.15,2013-02-03 18:04:00,
2013-02-03 13:07:00,20.9,15.1,29.78,North,32767,0.0,0.0,78,0.00,,,0.00,262,Wunderground v.1.15,2013-02-03 18:07:00,
2013-02-03 13:09:00,16.3,10.6,29.93,N/A,-737280,0.0,-999.0,78,0.00,,,0.00,0,Wunderground v.1.15,2013-02-03 18:09:00,
2013-02-03 13:12:00,21.1,15.3,29.78,North,32767,0.0,0.0,78,0.00,,,0.00,230,Wunderground v.1.15,2013-02-03 18:12:00,
2013-02-03 13:14:00,16.3,10.6,29.93,N/A,-737280,0.0,-999.0,78,0.00,,,0.00,0,Wunderground v.1.15,2013-02-03 18:14:00,
2013-02-03 13:17:00,21.1,15.0,29.78,North,32767,0.0,0.0,77,0.00,,,0.00,302,Wunderground v.1.15,2013-02-03 18:17:00,
2013-02-03 13:19:00,16.2,11.1,29.92,N/A,-737280,0.0,-999.0,80,0.00,,,0.00,0,Wunderground v.1.15,2013-02-03 18:19:00,
2013-02-03 13:22:00,21.2,15.1,29.78,North,32767,0.0,0.0,77,0.00,,,0.00,202,Wunderground v.1.15,2013-02-03 18:22:00,
2013-02-03 13:24:00,16.2,11.1,29.92,N/A,-737280,0.0,-999.0,80,0.00,,,0.00,0,Wunderground v.1.15,2013-02-03 18:24:00,
2013-02-03 13:27:00,21.1,15.0,29.78,North,32767,0.0,0.0,77,0.00,,,0.00,155,Wunderground v.1.15,2013-02-03 18:27:00,
2013-02-03 13:29:00,16.2,11.1,29.92,N/A,-737280,0.0,-999.0,80,0.00,,,0.00,0,Wunderground v.1.15,2013-02-03 18:29:00,
2013-02-03 13:32:00,21.0,15.2,29.78,North,32767,0.0,0.0,78,0.00,,,0.00,206,Wunderground v.1.15,2013-02-03 18:32:00,
2013-02-03 13:34:00,16.2,11.1,29.92,N/A,-737280,0.0,-999.0,80,0.00,,,0.00,0,Wunderground v.1.15,2013-02-03 18:34:00,
2013-02-03 13:37:00,21.2,15.7,29.78,North,32767,0.0,0.0,79,0.00,,,0.00,257,Wunderground v.1.15,2013-02-03 18:37:00,
2013-02-03 13:39:00,16.2,11.1,29.92,N/A,-737280,0.0,-999.0,80,0.00,,,0.00,0,Wunderground v.1.15,2013-02-03 18:39:00,
2013-02-03 13:42:00,21.3,15.2,29.78,North,32767,0.0,0.0,77,0.00,,,0.00,246,Wunderground v.1.15,2013-02-03 18:42:00,
2013-02-03 13:44:00,16.2,11.1,29.92,N/A,-737280,0.0,-999.0,80,0.00,,,0.00,0,Wunderground v.1.15,2013-02-03 18:44:00,
2013-02-03 13:47:00,21.6,15.5,29.78,North,32767,0.0,0.0,77,0.00,,,0.00,230,Wunderground v.1.15,2013-02-03 18:47:00,
2013-02-03 13:49:00,16.2,12.2,29.93,N/A,-737280,0.0,-999.0,84,0.00,,,0.00,0,Wunderground v.1.15,2013-02-03 18:49:00,
2013-02-03 13:52:00,21.7,15.6,29.78,North,32767,0.0,0.0,77,0.00,,,0.00,216,Wunderground v.1.15,2013-02-03 18:52:00,
2013-02-03 13:54:00,16.2,12.2,29.93,N/A,-737280,0.0,-999.0,84,0.00,,,0.00,0,Wunderground v.1.15,2013-02-03 18:54:00,
2013-02-03 13:57:00,21.8,15.1,29.78,North,32767,0.0,0.0,75,0.00,,,0.00,200,Wunderground v.1.15,2013-02-03 18:57:00,
2013-02-03 13:59:00,16.2,12.2,29.93,N/A,-737280,0.0,-999.0,84,0.00,,,0.00,0,Wunderground v.1.15,2013-02-03 18:59:00,
2013-02-03 14:02:00,21.9,15.5,29.78,North,32767,0.0,0.0,76,0.00,,,0.00,204,Wunderground v.1.15,2013-02-03 19:02:00,
2013-02-03 14:04:00,16.2,12.2,29.93,N/A,-737280,0.0,-999.0,84,0.00,,,0.00,0,Wunderground v.1.15,2013-02-03 19:04:00,
2013-02-03 14:07:00,21.9,15.5,29.78,North,32767,0.0,0.0,76,0.00,,,0.00,176,Wunderground v.1.15,2013-02-03 19:07:00,
2013-02-03 14:09:00,16.2,12.2,29.93,N/A,-737280,0.0,-999.0,84,0.00,,,0.00,0,Wunderground v.1.15,2013-02-03 19:09:00,
2013-02-03 14:12:00,21.8,15.4,29.77,North,32767,0.0,0.0,76,0.00,,,0.00,176,Wunderground v.1.15,2013-02-03 19:12:00,
2013-02-03 14:14:00,16.2,12.2,29.93,N/A,-737280,0.0,-999.0,84,0.00,,,0.00,0,Wunderground v.1.15,2013-02-03 19:14:00,
2013-02-03 14:17:00,21.7,15.6,29.77,North,32767,0.0,0.0,77,0.00,,,0.00,188,Wunderground v.1.15,2013-02-03 19:17:00,
2013-02-03 14:19:00,16.1,12.7,29.94,N/A,-737280,0.0,-999.0,86,0.00,,,0.00,0,Wunderground v.1.15,2013-02-03 19:19:00,
2013-02-03 14:22:00,21.7,15.6,29.77,North,32767,0.0,0.0,77,0.00,,,0.00,185,Wunderground v.1.15,2013-02-03 19:22:00,
2013-02-03 14:24:00,16.1,12.7,29.94,N/A,-737280,0.0,-999.0,86,0.00,,,0.00,0,Wunderground v.1.15,2013-02-03 19:24:00,
2013-02-03 14:27:00,21.6,16.1,29.77,North,32767,0.0,0.0,79,0.00,,,0.00,200,Wunderground v.1.15,2013-02-03 19:27:00,
2013-02-03 14:29:00,16.1,12.7,29.94,N/A,-737280,0.0,-999.0,86,0.00,,,0.00,0,Wunderground v.1.15,2013-02-03 19:29:00,
2013-02-03 14:32:00,21.7,16.2,29.77,North,32767,0.0,0.0,79,0.00,,,0.00,188,Wunderground v.1.15,2013-02-03 19:32:00,
2013-02-03 14:34:00,16.1,12.7,29.94,N/A,-737280,0.0,-999.0,86,0.00,,,0.00,0,Wunderground v.1.15,2013-02-03 19:34:00,
2013-02-03 14:37:00,21.8,16.3,29.76,North,32767,0.0,0.0,79,0.00,,,0.00,213,Wunderground v.1.15,2013-02-03 19:37:00,
2013-02-03 14:39:00,16.1,12.7,29.94,N/A,-737280,0.0,-999.0,86,0.00,,,0.00,0,Wunderground v.1.15,2013-02-03 19:39:00,
2013-02-03 14:42:00,22.0,16.2,29.76,North,32767,0.0,0.0,78,0.00,,,0.00,185,Wunderground v.1.15,2013-02-03 19:42:00,
2013-02-03 14:44:00,16.1,12.7,29.94,N/A,-737280,0.0,-999.0,86,0.00,,,0.00,0,Wunderground v.1.15,2013-02-03 19:44:00,
2013-02-03 14:47:00,22.1,16.0,29.77,North,32767,0.0,0.0,77,0.00,,,0.00,171,Wunderground v.1.15,2013-02-03 19:47:00,
2013-02-03 14:49:00,16.1,12.9,29.93,N/A,-737280,0.0,-999.0,87,0.00,,,0.00,0,Wunderground v.1.15,2013-02-03 19:49:00,
2013-02-03 14:52:00,22.1,15.7,29.77,North,32767,0.0,0.0,76,0.00,,,0.00,158,Wunderground v.1.15,2013-02-03 19:52:00,
2013-02-03 14:54:00,16.1,12.9,29.93,N/A,-737280,0.0,-999.0,87,0.00,,,0.00,0,Wunderground v.1.15,2013-02-03 19:54:00,
2013-02-03 14:57:00,22.1,15.7,29.77,North,32767,0.0,0.0,76,0.00,,,0.00,149,Wunderground v.1.15,2013-02-03 19:57:00,
2013-02-03 14:59:00,16.1,12.9,29.93,N/A,-737280,0.0,-999.0,87,0.00,,,0.00,0,Wunderground v.1.15,2013-02-03 19:59:00,
2013-02-03 15:02:00,22.1,15.7,29.78,North,32767,0.0,0.0,76,0.00,,,0.00,128,Wunderground v.1.15,2013-02-03 20:02:00,
2013-02-03 15:04:00,16.1,12.9,29.93,N/A,-737280,0.0,-999.0,87,0.00,,,0.00,0,Wunderground v.1.15,2013-02-03 20:04:00,
2013-02-03 15:07:00,22.1,15.7,29.77,North,32767,0.0,0.0,76,0.00,,,0.00,130,Wunderground v.1.15,2013-02-03 20:07:00,
2013-02-03 15:09:00,16.1,12.9,29.93,N/A,-737280,0.0,-999.0,87,0.00,,,0.00,0,Wunderground v.1.15,2013-02-03 20:09:00,
2013-02-03 15:12:00,22.1,15.4,29.78,North,32767,0.0,0.0,75,0.00,,,0.00,121,Wunderground v.1.15,2013-02-03 20:12:00,
2013-02-03 15:14:00,16.1,12.9,29.93,N/A,-737280,0.0,-999.0,87,0.00,,,0.00,0,Wunderground v.1.15,2013-02-03 20:14:00,
2013-02-03 15:17:00,22.0,15.6,29.78,North,32767,0.0,0.0,76,0.00,,,0.00,107,Wunderground v.1.15,2013-02-03 20:17:00,
2013-02-03 15:19:00,16.3,12.8,29.93,N/A,-737280,0.0,-999.0,86,0.00,,,0.00,0,Wunderground v.1.15,2013-02-03 20:19:00,
2013-02-03 15:22:00,21.9,15.8,29.78,North,32767,0.0,0.0,77,0.00,,,0.00,107,Wunderground v.1.15,2013-02-03 20:22:00,
2013-02-03 15:24:00,16.3,12.8,29.93,N/A,-737280,0.0,-999.0,86,0.00,,,0.00,0,Wunderground v.1.15,2013-02-03 20:24:00,
2013-02-03 15:27:00,21.7,15.9,29.78,North,32767,0.0,0.0,78,0.00,,,0.00,104,Wunderground v.1.15,2013-02-03 20:27:00,
2013-02-03 15:29:00,16.3,12.8,29.93,N/A,-737280,0.0,-999.0,86,0.00,,,0.00,0,Wunderground v.1.15,2013-02-03 20:29:00,
2013-02-03 15:32:00,21.7,16.2,29.79,North,32767,0.0,0.0,79,0.00,,,0.00,114,Wunderground v.1.15,2013-02-03 20:32:00,
2013-02-03 15:34:00,16.3,12.8,29.93,N/A,-737280,0.0,-999.0,86,0.00,,,0.00,0,Wunderground v.1.15,2013-02-03 20:34:00,
2013-02-03 15:37:00,21.7,16.2,29.79,North,32767,0.0,0.0,79,0.00,,,0.00,111,Wunderground v.1.15,2013-02-03 20:37:00,
2013-02-03 15:39:00,16.3,12.8,29.93,N/A,-737280,0.0,-999.0,86,0.00,,,0.00,0,Wunderground v.1.15,2013-02-03 20:39:00,
2013-02-03 15:42:00,21.7,16.5,29.79,North,32767,0.0,0.0,80,0.00,,,0.00,100,Wunderground v.1.15,2013-02-03 20:42:00,
2013-02-03 15:44:00,16.3,12.8,29.93,N/A,-737280,0.0,-999.0,86,0.00,,,0.00,0,Wunderground v.1.15,2013-02-03 20:44:00,
2013-02-03 15:47:00,21.7,16.2,29.79,North,32767,0.0,0.0,79,0.00,,,0.00,90,Wunderground v.1.15,2013-02-03 20:47:00,
2013-02-03 15:49:00,16.6,13.1,29.93,N/A,-737280,0.0,-999.0,86,0.00,,,0.00,0,Wunderground v.1.15,2013-02-03 20:49:00,
2013-02-03 15:52:00,21.6,16.4,29.79,North,32767,0.0,0.0,80,0.00,,,0.00,60,Wunderground v.1.15,2013-02-03 20:52:00,
2013-02-03 15:54:00,16.6,13.1,29.93,N/A,-737280,0.0,-999.0,86,0.00,,,0.00,0,Wunderground v.1.15,2013-02-03 20:54:00,
2013-02-03 15:57:00,21.5,17.1,29.80,North,32767,0.0,0.0,83,0.00,,,0.00,72,Wunderground v.1.15,2013-02-03 20:57:00,
2013-02-03 15:59:00,16.6,13.1,29.93,N/A,-737280,0.0,-999.0,86,0.00,,,0.00,0,Wunderground v.1.15,2013-02-03 20:59:00,
2013-02-03 16:02:00,21.3,17.2,29.80,North,32767,0.0,0.0,84,0.00,,,0.00,44,Wunderground v.1.15,2013-02-03 21:02:00,
2013-02-03 16:04:00,16.6,13.1,29.93,N/A,-737280,0.0,-999.0,86,0.00,,,0.00,0,Wunderground v.1.15,2013-02-03 21:04:00,
2013-02-03 16:08:00,20.9,17.6,29.80,North,32767,0.0,0.0,87,0.00,,,0.00,30,Wunderground v.1.15,2013-02-03 21:08:00,
2013-02-03 16:09:00,16.6,13.1,29.93,N/A,-737280,0.0,-999.0,86,0.00,,,0.00,0,Wunderground v.1.15,2013-02-03 21:09:00,
2013-02-03 16:12:00,20.6,17.9,29.80,North,32767,0.0,0.0,89,0.00,,,0.00,51,Wunderground v.1.15,2013-02-03 21:12:00,
2013-02-03 16:14:00,16.6,13.1,29.93,N/A,-737280,0.0,-999.0,86,0.00,,,0.00,0,Wunderground v.1.15,2013-02-03 21:14:00,
2013-02-03 16:18:00,20.4,17.4,29.80,North,32767,0.0,0.0,88,0.00,,,0.00,49,Wunderground v.1.15,2013-02-03 21:18:00,
2013-02-03 16:19:00,16.7,13.2,29.93,N/A,-737280,0.0,-999.0,86,0.00,,,0.00,0,Wunderground v.1.15,2013-02-03 21:19:00,
2013-02-03 16:23:00,20.2,17.2,29.80,North,32767,0.0,0.0,88,0.00,,,0.00,40,Wunderground v.1.15,2013-02-03 21:23:00,
2013-02-03 16:24:00,16.7,13.2,29.93,N/A,-737280,0.0,-999.0,86,0.00,,,0.00,0,Wunderground v.1.15,2013-02-03 21:24:00,
2013-02-03 16:28:00,20.2,17.2,29.80,North,32767,0.0,0.0,88,0.00,,,0.00,40,Wunderground v.1.15,2013-02-03 21:28:00,
2013-02-03 16:29:00,16.7,13.2,29.93,N/A,-737280,0.0,-999.0,86,0.00,,,0.00,0,Wunderground v.1.15,2013-02-03 21:29:00,
2013-02-03 16:33:00,20.2,17.2,29.80,North,32767,0.0,0.0,88,0.00,,,0.00,40,Wunderground v.1.15,2013-02-03 21:33:00,
2013-02-03 16:34:00,16.7,13.2,29.93,N/A,-737280,0.0,-999.0,86,0.00,,,0.00,0,Wunderground v.1.15,2013-02-03 21:34:00,
2013-02-03 16:38:00,20.2,17.2,29.80,North,32767,0.0,0.0,88,0.00,,,0.00,44,Wunderground v.1.15,2013-02-03 21:38:00,
2013-02-03 16:39:00,16.7,13.2,29.93,N/A,-737280,0.0,-999.0,86,0.00,,,0.00,0,Wunderground v.1.15,2013-02-03 21:39:00,
2013-02-03 16:43:00,20.2,17.0,29.80,North,32767,0.0,0.0,87,0.00,,,0.00,42,Wunderground v.1.15,2013-02-03 21:43:00,
2013-02-03 16:44:00,16.7,13.2,29.93,N/A,-737280,0.0,-999.0,86,0.00,,,0.00,0,Wunderground v.1.15,2013-02-03 21:44:00,
2013-02-03 16:48:00,20.3,17.3,29.80,North,32767,0.0,0.0,88,0.00,,,0.00,37,Wunderground v.1.15,2013-02-03 21:48:00,
2013-02-03 16:49:00,16.7,13.2,29.94,N/A,-737280,0.0,-999.0,86,0.00,,,0.00,0,Wunderground v.1.15,2013-02-03 21:49:00,
2013-02-03 16:53:00,20.3,17.0,29.81,North,32767,0.0,0.0,87,0.00,,,0.00,37,Wunderground v.1.15,2013-02-03 21:53:00,
2013-02-03 16:54:00,16.7,13.2,29.94,N/A,-737280,0.0,-999.0,86,0.00,,,0.00,0,Wunderground v.1.15,2013-02-03 21:54:00,
2013-02-03 16:58:00,20.4,17.1,29.81,North,32767,0.0,0.0,87,0.00,,,0.00,32,Wunderground v.1.15,2013-02-03 21:58:00,
2013-02-03 16:59:00,16.7,13.2,29.94,N/A,-737280,0.0,-999.0,86,0.00,,,0.00,0,Wunderground v.1.15,2013-02-03 21:59:00,
2013-02-03 17:03:00,20.4,16.9,29.81,North,32767,0.0,0.0,86,0.00,,,0.00,26,Wunderground v.1.15,2013-02-03 22:03:00,
2013-02-03 17:04:00,16.7,13.2,29.94,N/A,-737280,0.0,-999.0,86,0.00,,,0.00,0,Wunderground v.1.15,2013-02-03 22:04:00,
2013-02-03 17:08:00,20.4,16.9,29.81,North,32767,0.0,0.0,86,0.00,,,0.00,16,Wunderground v.1.15,2013-02-03 22:08:00,
2013-02-03 17:09:00,16.7,13.2,29.94,N/A,-737280,0.0,-999.0,86,0.00,,,0.00,0,Wunderground v.1.15,2013-02-03 22:09:00,
2013-02-03 17:13:00,20.4,16.9,29.81,North,32767,0.0,0.0,86,0.00,,,0.00,7,Wunderground v.1.15,2013-02-03 22:13:00,
2013-02-03 17:14:00,16.7,13.2,29.94,N/A,-737280,0.0,-999.0,86,0.00,,,0.00,0,Wunderground v.1.15,2013-02-03 22:14:00,
2013-02-03 17:18:00,20.3,16.8,29.82,North,32767,0.0,0.0,86,0.00,,,0.00,7,Wunderground v.1.15,2013-02-03 22:18:00,
2013-02-03 17:19:00,16.7,13.5,29.93,N/A,-737280,0.0,-999.0,87,0.00,,,0.00,0,Wunderground v.1.15,2013-02-03 22:19:00,
2013-02-03 17:23:00,20.1,17.1,29.82,North,32767,0.0,0.0,88,0.00,,,0.00,11,Wunderground v.1.15,2013-02-03 22:23:00,
2013-02-03 17:24:00,16.7,13.5,29.93,N/A,-737280,0.0,-999.0,87,0.00,,,0.00,0,Wunderground v.1.15,2013-02-03 22:24:00,
2013-02-03 17:28:00,19.9,16.9,29.83,North,32767,0.0,0.0,88,0.00,,,0.00,9,Wunderground v.1.15,2013-02-03 22:28:00,
2013-02-03 17:29:00,16.7,13.5,29.93,N/A,-737280,0.0,-999.0,87,0.00,,,0.00,0,Wunderground v.1.15,2013-02-03 22:29:00,
2013-02-03 17:33:00,19.7,16.5,29.82,North,32767,0.0,0.0,87,0.00,,,0.00,7,Wunderground v.1.15,2013-02-03 22:33:00,
2013-02-03 17:34:00,16.7,13.5,29.93,N/A,-737280,0.0,-999.0,87,0.00,,,0.00,0,Wunderground v.1.15,2013-02-03 22:34:00,
2013-02-03 17:38:00,19.5,16.0,29.83,North,32767,0.0,0.0,86,0.00,,,0.00,5,Wunderground v.1.15,2013-02-03 22:38:00,
2013-02-03 17:39:00,16.7,13.5,29.93,N/A,-737280,0.0,-999.0,87,0.00,,,0.00,0,Wunderground v.1.15,2013-02-03 22:39:00,
2013-02-03 17:43:00,19.4,15.4,29.83,North,32767,0.0,0.0,84,0.00,,,0.00,0,Wunderground v.1.15,2013-02-03 22:43:00,
2013-02-03 17:44:00,16.7,13.5,29.93,N/A,-737280,0.0,-999.0,87,0.00,,,0.00,0,Wunderground v.1.15,2013-02-03 22:44:00,
2013-02-03 17:48:00,19.1,14.5,29.83,North,32767,0.0,0.0,82,0.00,,,0.00,0,Wunderground v.1.15,2013-02-03 22:48:00,
2013-02-03 17:49:00,16.5,13.6,29.92,N/A,-737280,0.0,-999.0,88,0.00,,,0.00,0,Wunderground v.1.15,2013-02-03 22:49:00,
2013-02-03 17:53:00,18.9,14.3,29.83,North,32767,0.0,0.0,82,0.00,,,0.00,0,Wunderground v.1.15,2013-02-03 22:53:00,
2013-02-03 17:54:00,16.5,13.6,29.92,N/A,-737280,0.0,-999.0,88,0.00,,,0.00,0,Wunderground v.1.15,2013-02-03 22:54:00,
2013-02-03 17:59:00,18.8,14.2,29.83,North,32767,0.0,0.0,82,0.00,,,0.00,0,Wunderground v.1.15,2013-02-03 22:59:00,
2013-02-03 18:04:00,18.7,14.1,29.83,North,32767,0.0,0.0,82,0.00,,,0.00,0,Wunderground v.1.15,2013-02-03 23:04:00,
2013-02-03 18:09:00,18.8,13.9,29.84,North,32767,0.0,0.0,81,0.00,,,0.00,0,Wunderground v.1.15,2013-02-03 23:09:00,
2013-02-03 18:14:00,18.8,13.7,29.84,North,32767,0.0,0.0,80,0.00,,,0.00,0,Wunderground v.1.15,2013-02-03 23:14:00,
2013-02-03 18:19:00,18.8,13.9,29.85,North,32767,0.0,0.0,81,0.00,,,0.00,0,Wunderground v.1.15,2013-02-03 23:19:00,
2013-02-03 18:24:00,18.8,14.2,29.85,North,32767,0.0,0.0,82,0.00,,,0.00,0,Wunderground v.1.15,2013-02-03 23:24:00,
2013-02-03 18:29:00,18.7,13.8,29.85,North,32767,0.0,0.0,81,0.00,,,0.00,0,Wunderground v.1.15,2013-02-03 23:29:00,
2013-02-03 18:34:00,18.6,13.7,29.85,North,32767,0.0,0.0,81,0.00,,,0.00,0,Wunderground v.1.15,2013-02-03 23:34:00,
2013-02-03 18:39:00,18.6,14.0,29.86,North,32767,0.0,0.0,82,0.00,,,0.00,0,Wunderground v.1.15,2013-02-03 23:39:00,
2013-02-03 18:44:00,18.4,14.1,29.86,North,32767,0.0,0.0,83,0.00,,,0.00,0,Wunderground v.1.15,2013-02-03 23:44:00,
2013-02-03 18:49:00,18.3,14.0,29.86,North,32767,0.0,0.0,83,0.00,,,0.00,0,Wunderground v.1.15,2013-02-03 23:49:00,
2013-02-03 18:54:00,18.1,13.5,29.86,North,32767,0.0,0.0,82,0.00,,,0.00,0,Wunderground v.1.15,2013-02-03 23:54:00,
2013-02-03 18:59:00,18.0,13.2,29.87,North,32767,0.0,0.0,81,0.00,,,0.00,0,Wunderground v.1.15,2013-02-03 23:59:00,
2013-02-03 19:04:00,17.9,13.1,29.86,North,32767,0.0,0.0,81,0.00,,,0.00,0,Wunderground v.1.15,2013-02-04 00:04:00,
2013-02-03 19:09:00,17.9,13.1,29.87,North,32767,0.0,0.0,81,0.00,,,0.00,0,Wunderground v.1.15,2013-02-04 00:09:00,
2013-02-03 19:14:00,17.8,13.0,29.87,North,32767,0.0,0.0,81,0.00,,,0.00,0,Wunderground v.1.15,2013-02-04 00:14:00,
2013-02-03 19:19:00,17.8,12.4,29.87,North,32767,0.0,0.0,79,0.00,,,0.00,0,Wunderground v.1.15,2013-02-04 00:19:00,
2013-02-03 19:24:00,17.8,12.1,29.88,North,32767,0.0,0.0,78,0.00,,,0.00,0,Wunderground v.1.15,2013-02-04 00:24:00,
2013-02-03 19:29:00,17.8,12.4,29.88,North,32767,0.0,0.0,79,0.00,,,0.00,0,Wunderground v.1.15,2013-02-04 00:29:00,
2013-02-03 19:34:00,17.7,12.6,29.89,North,32767,0.0,0.0,80,0.00,,,0.00,0,Wunderground v.1.15,2013-02-04 00:34:00,
2013-02-03 19:39:00,17.6,11.9,29.89,North,32767,0.0,0.0,78,0.00,,,0.00,0,Wunderground v.1.15,2013-02-04 00:39:00,
2013-02-03 19:44:00,17.4,11.4,29.89,North,32767,0.0,0.0,77,0.00,,,0.00,0,Wunderground v.1.15,2013-02-04 00:44:00,
2013-02-03 19:49:00,17.3,10.7,29.89,North,32767,0.0,0.0,75,0.00,,,0.00,0,Wunderground v.1.15,2013-02-04 00:49:00,
2013-02-03 19:54:00,17.2,10.6,29.89,North,32767,0.0,0.0,75,0.00,,,0.00,0,Wunderground v.1.15,2013-02-04 00:54:00,
2013-02-03 19:59:00,17.1,10.5,29.89,North,32767,0.0,0.0,75,0.00,,,0.00,0,Wunderground v.1.15,2013-02-04 00:59:00,
2013-02-03 20:04:00,17.0,10.1,29.90,North,32767,0.0,0.0,74,0.00,,,0.00,0,Wunderground v.1.15,2013-02-04 01:04:00,
2013-02-03 20:09:00,16.9,9.7,29.90,North,32767,0.0,0.0,73,0.00,,,0.00,0,Wunderground v.1.15,2013-02-04 01:09:00,
2013-02-03 20:14:00,16.8,9.6,29.90,North,32767,0.0,0.0,73,0.00,,,0.00,0,Wunderground v.1.15,2013-02-04 01:14:00,
2013-02-03 20:19:00,16.8,9.6,29.90,North,32767,0.0,0.0,73,0.00,,,0.00,0,Wunderground v.1.15,2013-02-04 01:19:00,
2013-02-03 20:24:00,16.8,9.3,29.90,North,32767,0.0,0.0,72,0.00,,,0.00,0,Wunderground v.1.15,2013-02-04 01:24:00,
2013-02-03 20:29:00,16.7,9.5,29.90,North,32767,0.0,0.0,73,0.00,,,0.00,0,Wunderground v.1.15,2013-02-04 01:29:00,
2013-02-03 20:34:00,16.7,9.2,29.90,North,32767,0.0,0.0,72,0.00,,,0.00,0,Wunderground v.1.15,2013-02-04 01:34:00,
2013-02-03 20:39:00,16.6,8.8,29.91,North,32767,0.0,0.0,71,0.00,,,0.00,0,Wunderground v.1.15,2013-02-04 01:39:00,
2013-02-03 20:44:00,16.6,9.1,29.91,North,32767,0.0,0.0,72,0.00,,,0.00,0,Wunderground v.1.15,2013-02-04 01:44:00,
2013-02-03 20:49:00,16.6,9.1,29.91,North,32767,0.0,0.0,72,0.00,,,0.00,0,Wunderground v.1.15,2013-02-04 01:49:00,
2013-02-03 20:54:00,16.5,9.4,29.91,North,32767,0.0,0.0,73,0.00,,,0.00,0,Wunderground v.1.15,2013-02-04 01:54:00,
2013-02-03 20:59:00,-999.9,-99.9,29.89,N/A,-737280,0.0,-999.0,-32768,0.00,,,0.00,0,Wunderground v.1.15,2013-02-04 01:59:00,
2013-02-03 21:00:00,16.5,8.7,29.91,North,32767,0.0,0.0,71,0.00,,,0.00,0,Wunderground v.1.15,2013-02-04 02:00:00,
2013-02-03 21:04:00,-999.9,-99.9,29.89,N/A,-737280,0.0,-999.0,-32768,0.00,,,0.00,0,Wunderground v.1.15,2013-02-04 02:04:00,
2013-02-03 21:05:00,16.5,9.0,29.92,North,32767,0.0,0.0,72,0.00,,,0.00,0,Wunderground v.1.15,2013-02-04 02:05:00,
2013-02-03 21:09:00,-999.9,-99.9,29.89,N/A,-737280,0.0,-999.0,-32768,0.00,,,0.00,0,Wunderground v.1.15,2013-02-04 02:09:00,
2013-02-03 21:10:00,16.6,8.8,29.92,North,32767,0.0,0.0,71,0.00,,,0.00,0,Wunderground v.1.15,2013-02-04 02:10:00,
2013-02-03 21:14:00,-999.9,-99.9,29.89,N/A,-737280,0.0,-999.0,-32768,0.00,,,0.00,0,Wunderground v.1.15,2013-02-04 02:14:00,
2013-02-03 21:15:00,16.5,9.0,29.92,North,32767,0.0,0.0,72,0.00,,,0.00,0,Wunderground v.1.15,2013-02-04 02:15:00,
2013-02-03 21:19:00,-999.9,-99.9,29.89,N/A,-737280,0.0,-999.0,-32768,0.00,,,0.00,,Wunderground v.1.15,2013-02-04 02:19:00,
2013-02-03 21:20:00,16.5,8.7,29.92,North,32767,0.0,0.0,71,0.00,,,0.00,0,Wunderground v.1.15,2013-02-04 02:20:00,
2013-02-03 21:24:00,-999.9,-99.9,29.89,N/A,-737280,0.0,-999.0,-32768,0.00,,,0.00,,Wunderground v.1.15,2013-02-04 02:24:00,
2013-02-03 21:25:00,16.5,8.7,29.92,North,32767,0.0,0.0,71,0.00,,,0.00,0,Wunderground v.1.15,2013-02-04 02:25:00,
2013-02-03 21:29:00,-999.9,-99.9,29.89,N/A,-737280,0.0,-999.0,-32768,0.00,,,0.00,,Wunderground v.1.15,2013-02-04 02:29:00,
2013-02-03 21:30:00,16.5,9.0,29.92,North,32767,0.0,0.0,72,0.00,,,0.00,0,Wunderground v.1.15,2013-02-04 02:30:00,
2013-02-03 21:34:00,-999.9,-99.9,29.89,N/A,-737280,0.0,-999.0,-32768,0.00,,,0.00,,Wunderground v.1.15,2013-02-04 02:34:00,
2013-02-03 21:35:00,16.5,9.4,29.92,North,32767,0.0,0.0,73,0.00,,,0.00,0,Wunderground v.1.15,2013-02-04 02:35:00,
2013-02-03 21:39:00,-999.9,-99.9,29.89,N/A,-737280,0.0,-999.0,-32768,0.00,,,0.00,,Wunderground v.1.15,2013-02-04 02:39:00,
2013-02-03 21:40:00,16.4,9.3,29.92,North,32767,0.0,0.0,73,0.00,,,0.00,0,Wunderground v.1.15,2013-02-04 02:40:00,
2013-02-03 21:44:00,-999.9,-99.9,29.89,N/A,-737280,0.0,-999.0,-32768,0.00,,,0.00,,Wunderground v.1.15,2013-02-04 02:44:00,
2013-02-03 21:45:00,16.4,9.3,29.92,North,32767,0.0,0.0,73,0.00,,,0.00,0,Wunderground v.1.15,2013-02-04 02:45:00,
2013-02-03 21:49:00,-999.9,-99.9,29.89,N/A,-737280,0.0,-999.0,-32768,0.00,,,0.00,,Wunderground v.1.15,2013-02-04 02:49:00,
2013-02-03 21:50:00,16.4,8.9,29.92,North,32767,0.0,0.0,72,0.00,,,0.00,0,Wunderground v.1.15,2013-02-04 02:50:00,
2013-02-03 21:54:00,-999.9,-99.9,29.89,N/A,-737280,0.0,-999.0,-32768,0.00,,,0.00,,Wunderground v.1.15,2013-02-04 02:54:00,
2013-02-03 21:55:00,16.4,9.6,29.92,North,32767,0.0,0.0,74,0.00,,,0.00,0,Wunderground v.1.15,2013-02-04 02:55:00,
2013-02-03 21:59:00,-999.9,-99.9,29.89,N/A,-737280,0.0,-999.0,-32768,0.00,,,0.00,,Wunderground v.1.15,2013-02-04 02:59:00,
2013-02-03 22:00:00,16.4,9.6,29.92,North,32767,0.0,0.0,74,0.00,,,0.00,0,Wunderground v.1.15,2013-02-04 03:00:00,
2013-02-03 22:04:00,-999.9,-99.9,29.89,N/A,-737280,0.0,-999.0,-32768,0.00,,,0.00,,Wunderground v.1.15,2013-02-04 03:04:00,
2013-02-03 22:05:00,16.3,9.2,29.92,North,32767,0.0,0.0,73,0.00,,,0.00,0,Wunderground v.1.15,2013-02-04 03:05:00,
2013-02-03 22:09:00,-999.9,-99.9,29.89,N/A,-737280,0.0,-999.0,-32768,0.00,,,0.00,,Wunderground v.1.15,2013-02-04 03:09:00,
2013-02-03 22:10:00,16.4,9.9,29.92,North,32767,0.0,0.0,75,0.00,,,0.00,0,Wunderground v.1.15,2013-02-04 03:10:00,
2013-02-03 22:14:00,-999.9,-99.9,29.89,N/A,-737280,0.0,-999.0,-32768,0.00,,,0.00,,Wunderground v.1.15,2013-02-04 03:14:00,
2013-02-03 22:15:00,16.3,9.5,29.92,North,32767,0.0,0.0,74,0.00,,,0.00,0,Wunderground v.1.15,2013-02-04 03:15:00,
2013-02-03 22:19:00,-999.9,-99.9,29.90,N/A,-737280,0.0,-999.0,-32768,0.00,,,0.00,,Wunderground v.1.15,2013-02-04 03:19:00,
2013-02-03 22:20:00,16.3,9.8,29.93,North,32767,0.0,0.0,75,0.00,,,0.00,0,Wunderground v.1.15,2013-02-04 03:20:00,
2013-02-03 22:24:00,-999.9,-99.9,29.90,N/A,-737280,0.0,-999.0,-32768,0.00,,,0.00,,Wunderground v.1.15,2013-02-04 03:24:00,
2013-02-03 22:25:00,16.4,10.2,29.93,North,32767,0.0,0.0,76,0.00,,,0.00,0,Wunderground v.1.15,2013-02-04 03:25:00,
2013-02-03 22:29:00,-999.9,-99.9,29.90,N/A,-737280,0.0,-999.0,-32768,0.00,,,0.00,,Wunderground v.1.15,2013-02-04 03:29:00,
2013-02-03 22:30:00,16.4,9.9,29.93,North,32767,0.0,0.0,75,0.00,,,0.00,0,Wunderground v.1.15,2013-02-04 03:30:00,
2013-02-03 22:34:00,-999.9,-99.9,29.90,N/A,-737280,0.0,-999.0,-32768,0.00,,,0.00,,Wunderground v.1.15,2013-02-04 03:34:00,
2013-02-03 22:35:00,16.3,10.1,29.93,North,32767,0.0,0.0,76,0.00,,,0.00,0,Wunderground v.1.15,2013-02-04 03:35:00,
2013-02-03 22:39:00,-999.9,-99.9,29.90,N/A,-737280,0.0,-999.0,-32768,0.00,,,0.00,,Wunderground v.1.15,2013-02-04 03:39:00,
2013-02-03 22:41:00,16.3,9.8,29.93,North,32767,0.0,0.0,75,0.00,,,0.00,0,Wunderground v.1.15,2013-02-04 03:41:00,
2013-02-03 22:44:00,-999.9,-99.9,29.90,N/A,-737280,0.0,-999.0,-32768,0.00,,,0.00,,Wunderground v.1.15,2013-02-04 03:44:00,
2013-02-03 22:46:00,16.3,10.1,29.93,North,32767,0.0,0.0,76,0.00,,,0.00,0,Wunderground v.1.15,2013-02-04 03:46:00,
2013-02-03 22:49:00,17.4,15.0,29.90,N/A,-737280,0.0,-999.0,90,0.00,,,0.00,25,Wunderground v.1.15,2013-02-04 03:49:00,
2013-02-03 22:51:00,16.3,10.4,29.92,North,32767,0.0,0.0,77,0.00,,,0.00,0,Wunderground v.1.15,2013-02-04 03:51:00,
2013-02-03 22:54:00,17.4,15.0,29.90,N/A,-737280,0.0,-999.0,90,0.00,,,0.00,25,Wunderground v.1.15,2013-02-04 03:54:00,
2013-02-03 22:56:00,16.3,10.4,29.93,North,32767,0.0,0.0,77,0.00,,,0.00,0,Wunderground v.1.15,2013-02-04 03:56:00,
2013-02-03 22:59:00,17.4,15.0,29.90,N/A,-737280,0.0,-999.0,90,0.00,,,0.00,25,Wunderground v.1.15,2013-02-04 03:59:00,
2013-02-03 23:01:00,16.3,10.4,29.93,North,32767,0.0,0.0,77,0.00,,,0.00,0,Wunderground v.1.15,2013-02-04 04:01:00,
2013-02-03 23:04:00,17.4,15.0,29.90,N/A,-737280,0.0,-999.0,90,0.00,,,0.00,25,Wunderground v.1.15,2013-02-04 04:04:00,
2013-02-03 23:06:00,16.3,10.6,29.93,North,32767,0.0,0.0,78,0.00,,,0.00,0,Wunderground v.1.15,2013-02-04 04:06:00,
2013-02-03 23:09:00,17.4,15.0,29.90,N/A,-737280,0.0,-999.0,90,0.00,,,0.00,25,Wunderground v.1.15,2013-02-04 04:09:00,
2013-02-03 23:11:00,16.3,10.6,29.93,North,32767,0.0,0.0,78,0.00,,,0.00,0,Wunderground v.1.15,2013-02-04 04:11:00,
2013-02-03 23:14:00,17.4,15.0,29.90,N/A,-737280,0.0,-999.0,90,0.00,,,0.00,25,Wunderground v.1.15,2013-02-04 04:14:00,
2013-02-03 23:16:00,16.3,10.9,29.93,North,32767,0.0,0.0,79,0.00,,,0.00,0,Wunderground v.1.15,2013-02-04 04:16:00,
2013-02-03 23:19:00,17.9,15.5,29.89,N/A,-737280,0.0,-999.0,90,0.00,,,0.00,34,Wunderground v.1.15,2013-02-04 04:19:00,
2013-02-03 23:21:00,16.3,10.9,29.93,North,32767,0.0,0.0,79,0.00,,,0.00,0,Wunderground v.1.15,2013-02-04 04:21:00,
2013-02-03 23:24:00,17.9,15.5,29.89,N/A,-737280,0.0,-999.0,90,0.00,,,0.00,34,Wunderground v.1.15,2013-02-04 04:24:00,
2013-02-03 23:26:00,16.2,11.1,29.93,North,32767,0.0,0.0,80,0.00,,,0.00,0,Wunderground v.1.15,2013-02-04 04:26:00,
2013-02-03 23:29:00,17.9,15.5,29.89,N/A,-737280,0.0,-999.0,90,0.00,,,0.00,34,Wunderground v.1.15,2013-02-04 04:29:00,
2013-02-03 23:31:00,16.2,11.1,29.92,North,32767,0.0,0.0,80,0.00,,,0.00,0,Wunderground v.1.15,2013-02-04 04:31:00,
2013-02-03 23:34:00,17.9,15.5,29.89,N/A,-737280,0.0,-999.0,90,0.00,,,0.00,34,Wunderground v.1.15,2013-02-04 04:34:00,
2013-02-03 23:36:00,16.2,11.1,29.92,North,32767,0.0,0.0,80,0.00,,,0.00,0,Wunderground v.1.15,2013-02-04 04:36:00,
2013-02-03 23:39:00,17.9,15.5,29.89,N/A,-737280,0.0,-999.0,90,0.00,,,0.00,34,Wunderground v.1.15,2013-02-04 04:39:00,
2013-02-03 23:41:00,16.2,11.1,29.93,North,32767,0.0,0.0,80,0.00,,,0.00,0,Wunderground v.1.15,2013-02-04 04:41:00,
2013-02-03 23:44:00,17.9,15.5,29.89,N/A,-737280,0.0,-999.0,90,0.00,,,0.00,34,Wunderground v.1.15,2013-02-04 04:44:00,
2013-02-03 23:46:00,16.2,11.4,29.92,North,32767,0.0,0.0,81,0.00,,,0.00,0,Wunderground v.1.15,2013-02-04 04:46:00,
2013-02-03 23:49:00,18.5,16.1,29.89,N/A,-737280,0.0,-999.0,90,0.00,,,0.00,39,Wunderground v.1.15,2013-02-04 04:49:00,
2013-02-03 23:51:00,16.2,11.4,29.92,North,32767,0.0,0.0,81,0.00,,,0.00,0,Wunderground v.1.15,2013-02-04 04:51:00,
2013-02-03 23:54:00,18.5,16.1,29.89,N/A,-737280,0.0,-999.0,90,0.00,,,0.00,39,Wunderground v.1.15,2013-02-04 04:54:00,
2013-02-03 23:56:00,16.2,11.4,29.93,North,32767,0.0,0.0,81,0.00,,,0.00,0,Wunderground v.1.15,2013-02-04 04:56:00,
2013-02-03 23:59:00,18.5,16.1,29.89,N/A,-737280,0.0,-999.0,90,0.00,,,0.00,39,Wunderground v.1.15,2013-02-04 04:59:00,